Time,TemperatureF,DewpointF,PressureIn,WindDirection,WindDirectionDegrees,WindSpeedMPH,WindSpeedGustMPH,Humidity,HourlyPrecipIn,Conditions,Clouds,dailyrainin,SoftwareType,DateUTC
2013-04-10 00:00:00,74.2,69.0,29.64,ESE,112,4.0,9.0,84,0.00,,,0.00,WeatherCatV1.24B11,2013-04-10 05:00:00,
2013-04-10 00:01:00,74.2,69.0,29.64,ESE,108,10.0,10.0,84,0.00,,,0.00,WeatherCatV1.15B25,2013-04-10 05:01:00,
2013-04-10 00:05:00,74.2,69.0,29.65,ESE,113,2.0,13.0,84,0.00,,,0.00,WeatherCatV1.24B11,2013-04-10 05:05:00,
2013-04-10 00:06:00,74.2,69.0,29.64,ESE,111,5.0,11.0,84,0.00,,,0.00,WeatherCatV1.15B25,2013-04-10 05:06:00,
2013-04-10 00:10:00,74.1,68.9,29.65,ESE,112,3.0,11.0,84,0.00,,,0.00,WeatherCatV1.24B11,2013-04-10 05:10:00,
2013-04-10 00:11:00,74.2,69.0,29.64,East,82,2.0,8.0,84,0.00,,,0.00,WeatherCatV1.15B25,2013-04-10 05:11:00,
2013-04-10 00:15:00,74.1,68.9,29.65,ESE,111,4.0,9.0,84,0.00,,,0.00,WeatherCatV1.24B11,2013-04-10 05:15:00,
2013-04-10 00:16:00,74.2,69.0,29.65,South,173,0.0,6.0,84,0.00,,,0.00,WeatherCatV1.15B25,2013-04-10 05:16:00,
2013-04-10 00:20:00,74.1,68.9,29.65,ESE,106,4.0,7.0,84,0.00,,,0.00,WeatherCatV1.24B11,2013-04-10 05:20:00,
2013-04-10 00:21:00,74.2,69.0,29.65,ESE,105,0.0,4.0,84,0.00,,,0.00,WeatherCatV1.15B25,2013-04-10 05:21:00,
2013-04-10 00:25:00,74.1,68.9,29.65,SE,134,3.0,15.0,84,0.00,,,0.00,WeatherCatV1.24B11,2013-04-10 05:25:00,
2013-04-10 00:26:00,74.1,68.9,29.65,East,90,6.0,6.0,84,0.00,,,0.00,WeatherCatV1.15B25,2013-04-10 05:26:00,
2013-04-10 00:30:00,74.1,68.9,29.65,ESE,113,4.0,6.0,84,0.00,,,0.00,WeatherCatV1.24B11,2013-04-10 05:30:00,
2013-04-10 00:31:00,74.1,68.9,29.64,East,101,6.0,7.0,84,0.00,,,0.00,WeatherCatV1.15B25,2013-04-10 05:31:00,
2013-04-10 00:35:00,74.1,68.9,29.64,ESE,108,4.0,10.0,84,0.00,,,0.00,WeatherCatV1.24B11,2013-04-10 05:35:00,
2013-04-10 00:36:00,74.1,68.9,29.65,SW,222,0.0,14.0,84,0.00,,,0.00,WeatherCatV1.15B25,2013-04-10 05:36:00,
2013-04-10 00:40:00,74.1,68.9,29.64,ESE,105,4.0,8.0,84,0.00,,,0.00,WeatherCatV1.24B11,2013-04-10 05:40:00,
2013-04-10 00:41:00,74.1,68.9,29.65,ESE,118,3.0,18.0,84,0.00,,,0.00,WeatherCatV1.15B25,2013-04-10 05:41:00,
2013-04-10 00:45:00,74.1,68.6,29.64,ESE,106,5.0,15.0,83,0.00,,,0.00,WeatherCatV1.24B11,2013-04-10 05:45:00,
2013-04-10 00:46:00,74.1,68.9,29.65,SE,125,2.0,7.0,84,0.00,,,0.00,WeatherCatV1.15B25,2013-04-10 05:46:00,
2013-04-10 00:50:00,74.1,68.6,29.64,ESE,117,5.0,7.0,83,0.00,,,0.00,WeatherCatV1.24B11,2013-04-10 05:50:00,
2013-04-10 00:51:00,74.1,68.9,29.65,ESE,115,3.0,10.0,84,0.00,,,0.00,WeatherCatV1.15B25,2013-04-10 05:51:00,
2013-04-10 00:55:00,74.0,68.5,29.64,SE,129,3.0,4.0,83,0.00,,,0.00,WeatherCatV1.24B11,2013-04-10 05:55:00,
2013-04-10 00:56:00,74.1,68.6,29.64,ESE,104,2.0,9.0,83,0.00,,,0.00,WeatherCatV1.15B25,2013-04-10 05:56:00,
2013-04-10 01:00:00,74.0,68.5,29.64,ESE,120,3.0,7.0,83,0.00,,,0.00,WeatherCatV1.24B11,2013-04-10 06:00:00,
2013-04-10 01:01:00,74.1,68.6,29.64,SSW,195,3.0,7.0,83,0.00,,,0.00,WeatherCatV1.15B25,2013-04-10 06:01:00,
2013-04-10 01:05:00,74.0,68.5,29.64,ESE,119,5.0,10.0,83,0.00,,,0.00,WeatherCatV1.24B11,2013-04-10 06:05:00,
2013-04-10 01:06:00,74.1,68.6,29.64,SE,138,1.0,6.0,83,0.00,,,0.00,WeatherCatV1.15B25,2013-04-10 06:06:00,
2013-04-10 01:10:00,74.0,68.5,29.65,ESE,117,4.0,5.0,83,0.00,,,0.00,WeatherCatV1.24B11,2013-04-10 06:10:00,
2013-04-10 01:11:00,74.0,68.5,29.64,SE,126,2.0,14.0,83,0.00,,,0.00,WeatherCatV1.15B25,2013-04-10 06:11:00,
2013-04-10 01:15:00,74.0,68.5,29.65,ESE,113,4.0,10.0,83,0.00,,,0.00,WeatherCatV1.24B11,2013-04-10 06:15:00,
2013-04-10 01:16:00,74.0,68.5,29.65,ESE,112,4.0,15.0,83,0.00,,,0.00,WeatherCatV1.15B25,2013-04-10 06:16:00,
2013-04-10 01:20:00,74.1,68.6,29.65,ESE,110,5.0,10.0,83,0.00,,,0.00,WeatherCatV1.24B11,2013-04-10 06:20:00,
2013-04-10 01:21:00,74.0,68.5,29.65,ESE,110,1.0,7.0,83,0.00,,,0.00,WeatherCatV1.15B25,2013-04-10 06:21:00,
2013-04-10 01:25:00,74.1,68.6,29.65,ESE,120,4.0,9.0,83,0.00,,,0.00,WeatherCatV1.24B11,2013-04-10 06:25:00,
2013-04-10 01:26:00,74.0,68.5,29.65,ESE,121,7.0,10.0,83,0.00,,,0.00,WeatherCatV1.15B25,2013-04-10 06:26:00,
2013-04-10 01:30:00,74.1,68.6,29.64,ESE,117,4.0,12.0,83,0.00,,,0.00,WeatherCatV1.24B11,2013-04-10 06:30:00,
2013-04-10 01:31:00,74.1,68.6,29.65,ESE,102,9.0,10.0,83,0.00,,,0.00,WeatherCatV1.15B25,2013-04-10 06:31:00,
2013-04-10 01:35:00,74.1,68.6,29.64,ESE,121,4.0,9.0,83,0.00,,,0.00,WeatherCatV1.24B11,2013-04-10 06:35:00,
2013-04-10 01:36:00,74.1,68.6,29.65,ESE,121,3.0,11.0,83,0.00,,,0.00,WeatherCatV1.15B25,2013-04-10 06:36:00,
2013-04-10 01:40:00,74.1,68.6,29.64,ESE,114,5.0,9.0,83,0.00,,,0.00,WeatherCatV1.24B11,2013-04-10 06:40:00,
2013-04-10 01:41:00,74.0,68.5,29.65,East,81,0.0,12.0,83,0.00,,,0.00,WeatherCatV1.15B25,2013-04-10 06:41:00,
2013-04-10 01:45:00,74.2,68.3,29.64,ESE,108,5.0,14.0,82,0.00,,,0.00,WeatherCatV1.24B11,2013-04-10 06:45:00,
2013-04-10 01:46:00,74.1,68.6,29.64,East,84,9.0,19.0,83,0.00,,,0.00,WeatherCatV1.15B25,2013-04-10 06:46:00,
2013-04-10 01:50:00,74.1,68.2,29.64,East,100,5.0,6.0,82,0.00,,,0.00,WeatherCatV1.24B11,2013-04-10 06:50:00,
2013-04-10 01:51:00,74.1,68.6,29.64,SE,128,3.0,11.0,83,0.00,,,0.00,WeatherCatV1.15B25,2013-04-10 06:51:00,
2013-04-10 01:55:00,74.1,68.6,29.64,ESE,106,4.0,8.0,83,0.00,,,0.00,WeatherCatV1.24B11,2013-04-10 06:55:00,
2013-04-10 01:56:00,74.1,68.2,29.64,East,83,8.0,10.0,82,0.00,,,0.00,WeatherCatV1.15B25,2013-04-10 06:56:00,
2013-04-10 02:00:00,74.1,68.6,29.64,ESE,120,4.0,7.0,83,0.00,,,0.00,WeatherCatV1.24B11,2013-04-10 07:00:00,
2013-04-10 02:01:00,74.1,68.2,29.65,SE,145,5.0,11.0,82,0.00,,,0.00,WeatherCatV1.15B25,2013-04-10 07:01:00,
2013-04-10 02:05:00,74.1,68.6,29.64,ESE,114,4.0,9.0,83,0.00,,,0.00,WeatherCatV1.24B11,2013-04-10 07:05:00,
2013-04-10 02:06:00,74.1,68.2,29.64,ESE,111,0.0,10.0,82,0.00,,,0.00,WeatherCatV1.15B25,2013-04-10 07:06:00,
2013-04-10 02:10:00,74.0,68.5,29.63,ESE,116,4.0,11.0,83,0.00,,,0.00,WeatherCatV1.24B11,2013-04-10 07:10:00,
2013-04-10 02:11:00,74.1,68.6,29.64,ESE,122,7.0,7.0,83,0.00,,,0.00,WeatherCatV1.15B25,2013-04-10 07:11:00,
2013-04-10 02:15:00,74.0,68.5,29.63,ESE,113,4.0,11.0,83,0.00,,,0.00,WeatherCatV1.24B11,2013-04-10 07:15:00,
2013-04-10 02:16:00,74.1,68.6,29.64,ESE,120,2.0,11.0,83,0.00,,,0.00,WeatherCatV1.15B25,2013-04-10 07:16:00,
2013-04-10 02:20:00,74.0,68.5,29.63,ESE,110,5.0,10.0,83,0.00,,,0.00,WeatherCatV1.24B11,2013-04-10 07:20:00,
2013-04-10 02:21:00,74.1,68.6,29.64,SSE,154,2.0,6.0,83,0.00,,,0.00,WeatherCatV1.15B25,2013-04-10 07:21:00,
2013-04-10 02:25:00,74.0,68.5,29.63,ESE,115,6.0,15.0,83,0.00,,,0.00,WeatherCatV1.24B11,2013-04-10 07:25:00,
2013-04-10 02:26:00,74.0,68.5,29.63,SE,142,4.0,10.0,83,0.00,,,0.00,WeatherCatV1.15B25,2013-04-10 07:26:00,
2013-04-10 02:30:00,74.0,68.5,29.63,ESE,117,6.0,16.0,83,0.00,,,0.00,WeatherCatV1.24B11,2013-04-10 07:30:00,
2013-04-10 02:31:00,74.0,68.5,29.63,SE,142,5.0,11.0,83,0.00,,,0.00,WeatherCatV1.15B25,2013-04-10 07:31:00,
2013-04-10 02:35:00,73.9,68.4,29.62,ESE,114,5.0,9.0,83,0.00,,,0.00,WeatherCatV1.24B11,2013-04-10 07:35:00,
2013-04-10 02:36:00,74.0,68.5,29.63,SE,128,4.0,13.0,83,0.00,,,0.00,WeatherCatV1.15B25,2013-04-10 07:36:00,
2013-04-10 02:40:00,73.9,68.8,29.62,ESE,116,5.0,12.0,84,0.00,,,0.00,WeatherCatV1.24B11,2013-04-10 07:40:00,
2013-04-10 02:41:00,74.0,68.5,29.62,SE,134,8.0,14.0,83,0.00,,,0.00,WeatherCatV1.15B25,2013-04-10 07:41:00,
2013-04-10 02:45:00,73.9,68.8,29.61,ESE,105,4.0,15.0,84,0.00,,,0.00,WeatherCatV1.24B11,2013-04-10 07:45:00,
2013-04-10 02:46:00,74.0,68.5,29.62,SE,130,0.0,15.0,83,0.00,,,0.00,WeatherCatV1.15B25,2013-04-10 07:46:00,
2013-04-10 02:50:00,73.8,68.7,29.61,ESE,103,5.0,11.0,84,0.00,,,0.00,WeatherCatV1.24B11,2013-04-10 07:50:00,
2013-04-10 02:51:00,73.9,68.7,29.62,SE,128,5.0,19.0,84,0.00,,,0.00,WeatherCatV1.15B25,2013-04-10 07:51:00,
2013-04-10 02:55:00,73.7,68.6,29.61,ESE,112,5.0,10.0,84,0.00,,,0.00,WeatherCatV1.24B11,2013-04-10 07:55:00,
2013-04-10 02:56:00,73.9,68.7,29.62,East,82,7.0,8.0,84,0.00,,,0.00,WeatherCatV1.15B25,2013-04-10 07:56:00,
2013-04-10 03:00:00,73.7,68.6,29.61,ESE,110,4.0,9.0,84,0.00,,,0.00,WeatherCatV1.24B11,2013-04-10 08:00:00,
2013-04-10 03:01:00,73.8,68.7,29.61,East,80,3.0,11.0,84,0.00,,,0.00,WeatherCatV1.15B25,2013-04-10 08:01:00,
2013-04-10 03:05:00,73.7,68.6,29.60,ESE,105,3.0,5.0,84,0.00,,,0.00,WeatherCatV1.24B11,2013-04-10 08:05:00,
2013-04-10 03:06:00,73.7,68.6,29.61,South,173,9.0,11.0,84,0.00,,,0.00,WeatherCatV1.15B25,2013-04-10 08:06:00,
2013-04-10 03:10:00,73.6,68.4,29.60,ESE,108,4.0,13.0,84,0.00,,,0.00,WeatherCatV1.24B11,2013-04-10 08:10:00,
2013-04-10 03:11:00,73.7,68.6,29.61,ESE,121,4.0,11.0,84,0.00,,,0.00,WeatherCatV1.15B25,2013-04-10 08:11:00,
2013-04-10 03:15:00,73.5,68.4,29.60,ESE,111,5.0,11.0,84,0.00,,,0.00,WeatherCatV1.24B11,2013-04-10 08:15:00,
2013-04-10 03:16:00,73.7,68.6,29.61,SE,129,9.0,9.0,84,0.00,,,0.00,WeatherCatV1.15B25,2013-04-10 08:16:00,
2013-04-10 03:20:00,73.5,68.7,29.60,ESE,108,5.0,5.0,85,0.00,,,0.00,WeatherCatV1.24B11,2013-04-10 08:20:00,
2013-04-10 03:21:00,73.6,68.5,29.60,East,87,13.0,13.0,84,0.00,,,0.00,WeatherCatV1.15B25,2013-04-10 08:21:00,
2013-04-10 03:25:00,73.4,68.6,29.60,ESE,107,4.0,15.0,85,0.00,,,0.00,WeatherCatV1.24B11,2013-04-10 08:25:00,
2013-04-10 03:26:00,73.5,68.4,29.60,ESE,102,5.0,15.0,84,0.00,,,0.00,WeatherCatV1.15B25,2013-04-10 08:26:00,
2013-04-10 03:30:00,73.3,68.5,29.60,ESE,114,3.0,14.0,85,0.00,,,0.00,WeatherCatV1.24B11,2013-04-10 08:30:00,
2013-04-10 03:31:00,73.5,68.4,29.60,ESE,102,2.0,11.0,84,0.00,,,0.00,WeatherCatV1.15B25,2013-04-10 08:31:00,
2013-04-10 03:35:00,73.2,68.4,29.60,ESE,107,4.0,8.0,85,0.00,,,0.00,WeatherCatV1.24B11,2013-04-10 08:35:00,
2013-04-10 03:36:00,73.5,68.7,29.60,ESE,123,0.0,7.0,85,0.00,,,0.00,WeatherCatV1.15B25,2013-04-10 08:36:00,
2013-04-10 03:40:00,73.1,68.7,29.60,ESE,111,4.0,9.0,86,0.00,,,0.00,WeatherCatV1.24B11,2013-04-10 08:40:00,
2013-04-10 03:41:00,73.3,68.5,29.60,ESE,118,2.0,9.0,85,0.00,,,0.00,WeatherCatV1.15B25,2013-04-10 08:41:00,
2013-04-10 03:45:00,73.1,68.7,29.60,ESE,109,4.0,14.0,86,0.00,,,0.00,WeatherCatV1.24B11,2013-04-10 08:45:00,
2013-04-10 03:50:00,73.1,68.7,29.59,ESE,108,4.0,7.0,86,0.00,,,0.00,WeatherCatV1.24B11,2013-04-10 08:50:00,
2013-04-10 03:55:00,73.0,68.6,29.59,ESE,106,4.0,4.0,86,0.00,,,0.00,WeatherCatV1.24B11,2013-04-10 08:55:00,
2013-04-10 04:00:00,73.0,68.6,29.59,ESE,108,5.0,12.0,86,0.00,,,0.00,WeatherCatV1.24B11,2013-04-10 09:00:00,
2013-04-10 04:01:00,73.1,68.7,29.59,East,85,5.0,8.0,86,0.00,,,0.00,WeatherCatV1.15B25,2013-04-10 09:01:00,
2013-04-10 04:05:00,73.1,68.7,29.59,ESE,114,4.0,8.0,86,0.00,,,0.00,WeatherCatV1.24B11,2013-04-10 09:05:00,
2013-04-10 04:06:00,73.0,68.6,29.59,ESE,114,9.0,14.0,86,0.00,,,0.00,WeatherCatV1.15B25,2013-04-10 09:06:00,
2013-04-10 04:10:00,73.1,68.7,29.59,ESE,110,4.0,8.0,86,0.00,,,0.00,WeatherCatV1.24B11,2013-04-10 09:10:00,
2013-04-10 04:11:00,73.0,68.6,29.59,ENE,76,7.0,14.0,86,0.00,,,0.00,WeatherCatV1.15B25,2013-04-10 09:11:00,
2013-04-10 04:15:00,73.1,68.7,29.59,East,101,4.0,6.0,86,0.00,,,0.00,WeatherCatV1.24B11,2013-04-10 09:15:00,
2013-04-10 04:16:00,73.1,68.7,29.59,ESE,117,2.0,9.0,86,0.00,,,0.00,WeatherCatV1.15B25,2013-04-10 09:16:00,
2013-04-10 04:20:00,73.1,68.7,29.58,ESE,109,4.0,6.0,86,0.00,,,0.00,WeatherCatV1.24B11,2013-04-10 09:20:00,
2013-04-10 04:21:00,73.1,68.7,29.59,ESE,121,2.0,5.0,86,0.00,,,0.00,WeatherCatV1.15B25,2013-04-10 09:21:00,
2013-04-10 04:25:00,73.1,68.7,29.58,ESE,115,4.0,7.0,86,0.00,,,0.00,WeatherCatV1.24B11,2013-04-10 09:25:00,
2013-04-10 04:26:00,73.1,68.7,29.59,ESE,102,5.0,9.0,86,0.00,,,0.00,WeatherCatV1.15B25,2013-04-10 09:26:00,
2013-04-10 04:30:00,73.1,68.7,29.58,ESE,119,4.0,7.0,86,0.00,,,0.00,WeatherCatV1.24B11,2013-04-10 09:30:00,
2013-04-10 04:31:00,73.1,68.7,29.58,SE,127,6.0,11.0,86,0.00,,,0.00,WeatherCatV1.15B25,2013-04-10 09:31:00,
2013-04-10 04:35:00,73.1,68.7,29.58,ESE,109,4.0,16.0,86,0.00,,,0.00,WeatherCatV1.24B11,2013-04-10 09:35:00,
2013-04-10 04:36:00,73.1,68.7,29.58,East,92,0.0,8.0,86,0.00,,,0.00,WeatherCatV1.15B25,2013-04-10 09:36:00,
2013-04-10 04:40:00,73.1,68.3,29.58,SE,124,4.0,10.0,85,0.00,,,0.00,WeatherCatV1.24B11,2013-04-10 09:40:00,
2013-04-10 04:41:00,73.1,68.7,29.58,East,80,3.0,14.0,86,0.00,,,0.00,WeatherCatV1.15B25,2013-04-10 09:41:00,
2013-04-10 04:45:00,73.1,68.3,29.58,ESE,117,4.0,8.0,85,0.00,,,0.00,WeatherCatV1.24B11,2013-04-10 09:45:00,
2013-04-10 04:46:00,73.1,68.7,29.58,ENE,72,3.0,15.0,86,0.00,,,0.00,WeatherCatV1.15B25,2013-04-10 09:46:00,
2013-04-10 04:50:00,73.1,68.3,29.58,ESE,105,4.0,4.0,85,0.00,,,0.00,WeatherCatV1.24B11,2013-04-10 09:50:00,
2013-04-10 04:51:00,73.1,68.3,29.58,SE,136,1.0,5.0,85,0.00,,,0.00,WeatherCatV1.15B25,2013-04-10 09:51:00,
2013-04-10 04:55:00,73.0,68.2,29.57,ESE,103,3.0,10.0,85,0.00,,,0.00,WeatherCatV1.24B11,2013-04-10 09:55:00,
2013-04-10 04:56:00,73.1,68.3,29.58,SSE,154,0.0,7.0,85,0.00,,,0.00,WeatherCatV1.15B25,2013-04-10 09:56:00,
2013-04-10 05:00:00,73.1,68.3,29.57,ESE,103,4.0,7.0,85,0.00,,,0.00,WeatherCatV1.24B11,2013-04-10 10:00:00,
2013-04-10 05:01:00,73.0,68.2,29.58,ESE,103,3.0,7.0,85,0.00,,,0.00,WeatherCatV1.15B25,2013-04-10 10:01:00,
2013-04-10 05:05:00,73.1,68.3,29.57,ESE,106,4.0,7.0,85,0.00,,,0.00,WeatherCatV1.24B11,2013-04-10 10:05:00,
2013-04-10 05:06:00,73.1,68.3,29.57,SE,128,0.0,9.0,85,0.00,,,0.00,WeatherCatV1.15B25,2013-04-10 10:06:00,
2013-04-10 05:10:00,73.1,68.3,29.58,ESE,106,3.0,6.0,85,0.00,,,0.00,WeatherCatV1.24B11,2013-04-10 10:10:00,
2013-04-10 05:11:00,73.1,68.7,29.57,East,88,6.0,8.0,86,0.00,,,0.00,WeatherCatV1.15B25,2013-04-10 10:11:00,
2013-04-10 05:15:00,73.1,68.3,29.58,ESE,105,3.0,14.0,85,0.00,,,0.00,WeatherCatV1.24B11,2013-04-10 10:15:00,
2013-04-10 05:16:00,73.1,68.3,29.57,ESE,102,2.0,10.0,85,0.00,,,0.00,WeatherCatV1.15B25,2013-04-10 10:16:00,
2013-04-10 05:20:00,73.1,68.3,29.59,ESE,110,3.0,7.0,85,0.00,,,0.00,WeatherCatV1.24B11,2013-04-10 10:20:00,
2013-04-10 05:21:00,73.1,68.3,29.57,East,88,9.0,9.0,85,0.00,,,0.00,WeatherCatV1.15B25,2013-04-10 10:21:00,
2013-04-10 05:25:00,73.1,68.3,29.60,ESE,109,3.0,7.0,85,0.00,,,0.00,WeatherCatV1.24B11,2013-04-10 10:25:00,
2013-04-10 05:26:00,73.1,68.3,29.58,ESE,107,5.0,9.0,85,0.00,,,0.00,WeatherCatV1.15B25,2013-04-10 10:26:00,
2013-04-10 05:30:00,73.1,68.3,29.61,SSE,148,2.0,4.0,85,0.00,,,0.00,WeatherCatV1.24B11,2013-04-10 10:30:00,
2013-04-10 05:31:00,73.1,68.3,29.58,East,95,5.0,8.0,85,0.00,,,0.00,WeatherCatV1.15B25,2013-04-10 10:31:00,
2013-04-10 05:35:00,73.2,68.4,29.63,SSE,147,1.0,3.0,85,0.00,,,0.00,WeatherCatV1.24B11,2013-04-10 10:35:00,
2013-04-10 05:36:00,73.1,68.3,29.59,ESE,114,3.0,5.0,85,0.00,,,0.00,WeatherCatV1.15B25,2013-04-10 10:36:00,
2013-04-10 05:40:00,73.3,68.5,29.63,SSE,154,2.0,5.0,85,0.00,,,0.00,WeatherCatV1.24B11,2013-04-10 10:40:00,
2013-04-10 05:41:00,73.1,68.3,29.60,SE,146,0.0,2.0,85,0.00,,,0.00,WeatherCatV1.15B25,2013-04-10 10:41:00,
2013-04-10 05:45:00,73.3,68.5,29.63,SSE,153,1.0,2.0,85,0.00,,,0.00,WeatherCatV1.24B11,2013-04-10 10:45:00,
2013-04-10 05:46:00,73.2,68.4,29.62,ESE,118,1.0,6.0,85,0.00,,,0.00,WeatherCatV1.15B25,2013-04-10 10:46:00,
2013-04-10 05:50:00,73.3,68.5,29.62,ESE,119,1.0,5.0,85,0.00,,,0.00,WeatherCatV1.24B11,2013-04-10 10:50:00,
2013-04-10 05:51:00,73.2,68.4,29.63,SSE,156,0.0,5.0,85,0.00,,,0.00,WeatherCatV1.15B25,2013-04-10 10:51:00,
2013-04-10 05:55:00,73.3,68.5,29.62,ESE,115,1.0,2.0,85,0.00,,,0.00,WeatherCatV1.24B11,2013-04-10 10:55:00,
2013-04-10 05:56:00,73.3,68.5,29.63,SSE,158,0.0,0.0,85,0.00,,,0.00,WeatherCatV1.15B25,2013-04-10 10:56:00,
2013-04-10 06:00:00,73.2,68.4,29.61,ESE,119,1.0,3.0,85,0.00,,,0.00,WeatherCatV1.24B11,2013-04-10 11:00:00,
2013-04-10 06:01:00,73.3,68.5,29.63,East,95,0.0,7.0,85,0.00,,,0.00,WeatherCatV1.15B25,2013-04-10 11:01:00,
2013-04-10 06:05:00,73.3,68.5,29.62,ESE,110,1.0,11.0,85,0.00,,,0.00,WeatherCatV1.24B11,2013-04-10 11:05:00,
2013-04-10 06:06:00,73.3,68.5,29.62,ESE,113,0.0,0.0,85,0.00,,,0.00,WeatherCatV1.15B25,2013-04-10 11:06:00,
2013-04-10 06:10:00,73.3,68.2,29.63,SE,143,1.0,0.0,84,0.00,,,0.00,WeatherCatV1.24B11,2013-04-10 11:10:00,
2013-04-10 06:11:00,73.3,68.5,29.62,SSE,148,0.0,3.0,85,0.00,,,0.00,WeatherCatV1.15B25,2013-04-10 11:11:00,
2013-04-10 06:15:00,73.4,68.2,29.64,SSE,149,1.0,2.0,84,0.00,,,0.00,WeatherCatV1.24B11,2013-04-10 11:15:00,
2013-04-10 06:16:00,73.2,68.4,29.62,ESE,106,0.0,7.0,85,0.00,,,0.00,WeatherCatV1.15B25,2013-04-10 11:16:00,
2013-04-10 06:20:00,73.4,68.2,29.63,SSE,148,0.0,0.0,84,0.00,,,0.00,WeatherCatV1.24B11,2013-04-10 11:20:00,
2013-04-10 06:21:00,73.3,68.5,29.62,SSE,161,0.0,0.0,85,0.00,,,0.00,WeatherCatV1.15B25,2013-04-10 11:21:00,
2013-04-10 06:25:00,73.4,68.2,29.62,SSE,148,0.0,0.0,84,0.00,,,0.00,WeatherCatV1.24B11,2013-04-10 11:25:00,
2013-04-10 06:26:00,73.3,68.2,29.63,SSE,149,0.0,5.0,84,0.00,,,0.00,WeatherCatV1.15B25,2013-04-10 11:26:00,
2013-04-10 06:30:00,73.3,68.2,29.62,SE,143,0.0,4.0,84,0.00,,,0.00,WeatherCatV1.24B11,2013-04-10 11:30:00,
2013-04-10 06:31:00,73.4,68.3,29.63,SSE,148,0.0,0.0,84,0.00,,,0.00,WeatherCatV1.15B25,2013-04-10 11:31:00,
2013-04-10 06:35:00,73.4,68.2,29.63,ESE,120,1.0,5.0,84,0.00,,,0.00,WeatherCatV1.24B11,2013-04-10 11:35:00,
2013-04-10 06:36:00,73.4,68.3,29.63,SSE,148,0.0,1.0,84,0.00,,,0.00,WeatherCatV1.15B25,2013-04-10 11:36:00,
2013-04-10 06:40:00,73.4,68.2,29.63,SE,129,1.0,5.0,84,0.00,,,0.00,WeatherCatV1.24B11,2013-04-10 11:40:00,
2013-04-10 06:41:00,73.3,68.2,29.62,SE,144,3.0,3.0,84,0.00,,,0.00,WeatherCatV1.15B25,2013-04-10 11:41:00,
2013-04-10 06:45:00,73.4,68.2,29.63,ESE,123,1.0,0.0,84,0.00,,,0.00,WeatherCatV1.24B11,2013-04-10 11:45:00,
2013-04-10 06:46:00,73.3,68.2,29.62,ESE,113,0.0,0.0,84,0.00,,,0.00,WeatherCatV1.15B25,2013-04-10 11:46:00,
2013-04-10 06:50:00,73.4,68.2,29.63,ESE,120,0.0,0.0,84,0.00,,,0.00,WeatherCatV1.24B11,2013-04-10 11:50:00,
2013-04-10 06:51:00,73.4,68.3,29.63,SE,138,0.0,4.0,84,0.00,,,0.00,WeatherCatV1.15B25,2013-04-10 11:51:00,
2013-04-10 06:55:00,73.4,68.2,29.63,SE,140,0.0,4.0,84,0.00,,,0.00,WeatherCatV1.24B11,2013-04-10 11:55:00,
2013-04-10 06:56:00,73.4,68.3,29.64,ESE,119,0.0,0.0,84,0.00,,,0.00,WeatherCatV1.15B25,2013-04-10 11:56:00,
2013-04-10 07:00:00,73.3,68.2,29.64,SE,138,0.0,1.0,84,0.00,,,0.00,WeatherCatV1.24B11,2013-04-10 12:00:00,
2013-04-10 07:01:00,73.4,68.3,29.63,ESE,119,0.0,0.0,84,0.00,,,0.00,WeatherCatV1.15B25,2013-04-10 12:01:00,
2013-04-10 07:05:00,73.3,68.5,29.64,SE,137,0.0,0.0,85,0.00,,,0.00,WeatherCatV1.24B11,2013-04-10 12:05:00,
2013-04-10 07:06:00,73.4,68.3,29.63,SSE,158,0.0,5.0,84,0.00,,,0.00,WeatherCatV1.15B25,2013-04-10 12:06:00,
2013-04-10 07:10:00,73.1,68.3,29.64,SE,136,0.0,1.0,85,0.00,,,0.00,WeatherCatV1.24B11,2013-04-10 12:10:00,
2013-04-10 07:11:00,73.3,68.2,29.63,SE,136,0.0,3.0,84,0.00,,,0.00,WeatherCatV1.15B25,2013-04-10 12:11:00,
2013-04-10 07:15:00,72.8,68.4,29.64,SSE,147,0.0,2.0,86,0.00,,,0.00,WeatherCatV1.24B11,2013-04-10 12:15:00,
2013-04-10 07:16:00,73.3,68.5,29.64,SE,136,0.0,0.0,85,0.00,,,0.00,WeatherCatV1.15B25,2013-04-10 12:16:00,
2013-04-10 07:20:00,72.4,68.3,29.65,SSE,152,0.0,0.0,87,0.00,,,0.00,WeatherCatV1.24B11,2013-04-10 12:20:00,
2013-04-10 07:21:00,73.2,68.4,29.64,SE,136,0.0,0.0,85,0.00,,,0.00,WeatherCatV1.15B25,2013-04-10 12:21:00,
2013-04-10 07:25:00,72.1,68.3,29.65,SSE,153,0.0,3.0,88,0.06,,,0.00,WeatherCatV1.24B11,2013-04-10 12:25:00,
2013-04-10 07:26:00,73.0,68.6,29.64,SSE,154,0.0,0.0,86,0.00,,,0.00,WeatherCatV1.15B25,2013-04-10 12:26:00,
2013-04-10 07:30:00,71.9,68.1,29.65,SSE,153,0.0,0.0,88,0.06,,,0.00,WeatherCatV1.24B11,2013-04-10 12:30:00,
2013-04-10 07:31:00,72.6,68.5,29.65,SSE,154,0.0,1.0,87,0.00,,,0.01,WeatherCatV1.15B25,2013-04-10 12:31:00,
2013-04-10 07:35:00,71.7,68.3,29.65,SSE,153,0.0,0.0,89,0.06,,,0.00,WeatherCatV1.24B11,2013-04-10 12:35:00,
2013-04-10 07:36:00,72.2,68.1,29.65,SSE,154,0.0,1.0,87,0.00,,,0.01,WeatherCatV1.15B25,2013-04-10 12:36:00,
2013-04-10 07:40:00,71.6,68.2,29.65,SSE,153,0.0,0.0,89,0.04,,,0.00,WeatherCatV1.24B11,2013-04-10 12:40:00,
2013-04-10 07:41:00,72.0,68.2,29.65,SSE,153,0.0,0.0,88,0.06,,,0.02,WeatherCatV1.15B25,2013-04-10 12:41:00,
2013-04-10 07:45:00,71.5,68.1,29.66,SSE,153,0.0,0.0,89,0.00,,,0.00,WeatherCatV1.24B11,2013-04-10 12:45:00,
2013-04-10 07:46:00,71.8,68.4,29.65,SSE,153,0.0,0.0,89,0.06,,,0.02,WeatherCatV1.15B25,2013-04-10 12:46:00,
2013-04-10 07:50:00,71.4,68.3,29.66,SSE,153,0.0,0.0,90,0.00,,,0.00,WeatherCatV1.24B11,2013-04-10 12:50:00,
2013-04-10 07:51:00,71.7,68.3,29.65,SSE,152,0.0,0.0,89,0.04,,,0.02,WeatherCatV1.15B25,2013-04-10 12:51:00,
2013-04-10 07:55:00,71.3,68.2,29.66,SSE,153,0.0,0.0,90,0.00,,,0.00,WeatherCatV1.24B11,2013-04-10 12:55:00,
2013-04-10 07:56:00,71.5,68.1,29.66,SSE,152,0.0,0.0,89,0.00,,,0.02,WeatherCatV1.15B25,2013-04-10 12:56:00,
2013-04-10 08:00:00,71.3,68.2,29.66,SSE,153,0.0,0.0,90,0.00,,,0.00,WeatherCatV1.24B11,2013-04-10 13:00:00,
2013-04-10 08:01:00,71.4,68.3,29.66,SSE,153,0.0,0.0,90,0.00,,,0.02,WeatherCatV1.15B25,2013-04-10 13:01:00,
2013-04-10 08:05:00,71.3,68.2,29.66,SSE,153,0.0,0.0,90,0.00,,,0.00,WeatherCatV1.24B11,2013-04-10 13:05:00,
2013-04-10 08:06:00,71.4,68.3,29.66,SSE,153,0.0,0.0,90,0.00,,,0.02,WeatherCatV1.15B25,2013-04-10 13:06:00,
2013-04-10 08:10:00,71.3,68.5,29.67,SSE,153,0.0,0.0,91,0.00,,,0.00,WeatherCatV1.24B11,2013-04-10 13:10:00,
2013-04-10 08:11:00,71.3,68.2,29.66,SSE,153,0.0,0.0,90,0.00,,,0.02,WeatherCatV1.15B25,2013-04-10 13:11:00,
2013-04-10 08:15:00,71.3,68.5,29.67,SSE,153,0.0,0.0,91,0.18,,,0.00,WeatherCatV1.24B11,2013-04-10 13:15:00,
2013-04-10 08:16:00,71.3,68.2,29.66,SSE,152,0.0,0.0,90,0.00,,,0.02,WeatherCatV1.15B25,2013-04-10 13:16:00,
2013-04-10 08:20:00,71.3,68.5,29.67,SSE,153,0.0,0.0,91,0.09,,,0.00,WeatherCatV1.24B11,2013-04-10 13:20:00,
2013-04-10 08:21:00,71.3,68.2,29.66,SSE,153,0.0,0.0,90,0.00,,,0.02,WeatherCatV1.15B25,2013-04-10 13:21:00,
2013-04-10 08:25:00,71.3,68.5,29.68,SSE,153,0.0,0.0,91,0.05,,,0.00,WeatherCatV1.24B11,2013-04-10 13:25:00,
2013-04-10 08:26:00,71.3,68.5,29.67,SSE,153,0.0,0.0,91,0.18,,,0.04,WeatherCatV1.15B25,2013-04-10 13:26:00,
2013-04-10 08:30:00,71.3,68.5,29.68,SSE,153,0.0,0.0,91,0.00,,,0.00,WeatherCatV1.24B11,2013-04-10 13:30:00,
2013-04-10 08:31:00,71.3,68.5,29.67,SSE,153,0.0,0.0,91,0.09,,,0.04,WeatherCatV1.15B25,2013-04-10 13:31:00,
2013-04-10 08:35:00,71.3,68.5,29.68,SSE,153,0.0,0.0,91,0.00,,,0.00,WeatherCatV1.24B11,2013-04-10 13:35:00,
2013-04-10 08:36:00,71.3,68.5,29.67,SSE,153,0.0,0.0,91,0.05,,,0.04,WeatherCatV1.15B25,2013-04-10 13:36:00,
2013-04-10 08:40:00,71.3,68.5,29.68,SSE,153,0.0,0.0,91,0.00,,,0.00,WeatherCatV1.24B11,2013-04-10 13:40:00,
2013-04-10 08:41:00,71.3,68.5,29.68,SSE,152,0.0,0.0,91,0.04,,,0.04,WeatherCatV1.15B25,2013-04-10 13:41:00,
2013-04-10 08:45:00,71.3,68.5,29.68,SSE,153,0.0,2.0,91,0.00,,,0.00,WeatherCatV1.24B11,2013-04-10 13:45:00,
2013-04-10 08:46:00,71.3,68.5,29.68,SSE,153,0.0,0.0,91,0.00,,,0.04,WeatherCatV1.15B25,2013-04-10 13:46:00,
2013-04-10 08:50:00,71.4,68.6,29.69,SSE,153,0.0,0.0,91,0.00,,,0.00,WeatherCatV1.24B11,2013-04-10 13:50:00,
2013-04-10 08:51:00,71.3,68.5,29.68,SSE,152,0.0,0.0,91,0.00,,,0.05,WeatherCatV1.15B25,2013-04-10 13:51:00,
2013-04-10 08:55:00,71.4,68.6,29.69,SSE,153,0.0,0.0,91,0.00,,,0.00,WeatherCatV1.24B11,2013-04-10 13:55:00,
2013-04-10 08:56:00,71.3,68.5,29.68,SSE,153,0.0,0.0,91,0.00,,,0.05,WeatherCatV1.15B25,2013-04-10 13:56:00,
2013-04-10 09:00:00,71.4,68.9,29.69,SSE,153,0.0,0.0,92,0.00,,,0.00,WeatherCatV1.24B11,2013-04-10 14:00:00,
2013-04-10 09:01:00,71.3,68.5,29.68,SSE,152,0.0,0.0,91,0.00,,,0.05,WeatherCatV1.15B25,2013-04-10 14:01:00,
2013-04-10 09:05:00,71.5,69.0,29.70,SSE,153,0.0,0.0,92,0.00,,,0.00,WeatherCatV1.24B11,2013-04-10 14:05:00,
2013-04-10 09:06:00,71.3,68.5,29.69,SSE,153,0.0,0.0,91,0.00,,,0.05,WeatherCatV1.15B25,2013-04-10 14:06:00,
2013-04-10 09:10:00,71.5,69.0,29.70,SSE,153,0.0,4.0,92,0.00,,,0.00,WeatherCatV1.24B11,2013-04-10 14:10:00,
2013-04-10 09:11:00,71.3,68.8,29.69,SSE,153,0.0,0.0,92,0.00,,,0.05,WeatherCatV1.15B25,2013-04-10 14:11:00,
2013-04-10 09:15:00,63.9,58.6,29.72,East,92,6.0,18.0,83,0.00,,,0.00,WeatherCatV1.24B11,2013-04-10 14:15:00,
2013-04-10 09:16:00,71.5,69.0,29.70,SSE,152,0.0,0.0,92,0.00,,,0.05,WeatherCatV1.15B25,2013-04-10 14:16:00,
2013-04-10 09:20:00,58.8,54.6,29.73,North,354,9.0,12.0,86,0.00,,,0.00,WeatherCatV1.24B11,2013-04-10 14:20:00,
2013-04-10 09:21:00,71.5,69.0,29.70,SSE,153,0.0,0.0,92,0.00,,,0.05,WeatherCatV1.15B25,2013-04-10 14:21:00,
2013-04-10 09:25:00,55.8,52.0,29.73,NNW,337,8.0,10.0,87,0.00,,,0.00,WeatherCatV1.24B11,2013-04-10 14:25:00,
2013-04-10 09:26:00,66.9,62.6,29.72,WNW,299,18.0,22.0,86,0.00,,,0.06,WeatherCatV1.15B25,2013-04-10 14:26:00,
2013-04-10 09:30:00,54.1,50.6,29.74,NNW,330,8.0,14.0,88,0.00,,,0.00,WeatherCatV1.24B11,2013-04-10 14:30:00,
2013-04-10 09:31:00,60.1,55.6,29.73,NW,317,7.0,13.0,85,0.00,,,0.06,WeatherCatV1.15B25,2013-04-10 14:31:00,
2013-04-10 09:35:00,53.3,50.1,29.75,NW,319,7.0,10.0,89,0.00,,,0.00,WeatherCatV1.24B11,2013-04-10 14:35:00,
2013-04-10 09:36:00,56.7,52.9,29.73,NNW,335,5.0,13.0,87,0.00,,,0.06,WeatherCatV1.15B25,2013-04-10 14:36:00,
2013-04-10 09:40:00,52.4,49.2,29.75,NW,322,7.0,17.0,89,0.00,,,0.00,WeatherCatV1.24B11,2013-04-10 14:40:00,
2013-04-10 09:41:00,54.6,51.1,29.74,NNW,336,14.0,16.0,88,0.00,,,0.06,WeatherCatV1.15B25,2013-04-10 14:41:00,
2013-04-10 09:45:00,51.4,48.6,29.76,NW,320,9.0,12.0,90,0.00,,,0.00,WeatherCatV1.24B11,2013-04-10 14:45:00,
2013-04-10 09:46:00,53.5,50.3,29.75,NW,306,2.0,6.0,89,0.00,,,0.06,WeatherCatV1.15B25,2013-04-10 14:46:00,
2013-04-10 09:50:00,50.6,47.8,29.77,NW,316,10.0,21.0,90,0.00,,,0.00,WeatherCatV1.24B11,2013-04-10 14:50:00,
2013-04-10 09:51:00,52.8,49.9,29.75,NW,318,9.0,19.0,90,0.00,,,0.06,WeatherCatV1.15B25,2013-04-10 14:51:00,
2013-04-10 09:55:00,49.8,47.0,29.77,NW,309,11.0,15.0,90,0.00,,,0.00,WeatherCatV1.24B11,2013-04-10 14:55:00,
2013-04-10 09:56:00,51.7,48.6,29.76,West,265,5.0,14.0,89,0.00,,,0.06,WeatherCatV1.15B25,2013-04-10 14:56:00,
2013-04-10 10:00:00,49.4,46.6,29.78,NW,317,10.0,17.0,90,0.00,,,0.00,WeatherCatV1.24B11,2013-04-10 15:00:00,
2013-04-10 10:01:00,50.8,48.0,29.77,WNW,302,7.0,17.0,90,0.00,,,0.06,WeatherCatV1.15B25,2013-04-10 15:01:00,
2013-04-10 10:05:00,49.1,46.3,29.78,NW,312,9.0,15.0,90,0.00,,,0.00,WeatherCatV1.24B11,2013-04-10 15:05:00,
2013-04-10 10:06:00,50.1,47.3,29.77,WNW,303,7.0,20.0,90,0.00,,,0.06,WeatherCatV1.15B25,2013-04-10 15:06:00,
2013-04-10 10:10:00,48.9,46.1,29.78,NW,317,9.0,11.0,90,0.00,,,0.00,WeatherCatV1.24B11,2013-04-10 15:10:00,
2013-04-10 10:11:00,49.7,46.9,29.77,NW,321,7.0,16.0,90,0.00,,,0.06,WeatherCatV1.15B25,2013-04-10 15:11:00,
2013-04-10 10:15:00,48.9,46.1,29.78,NW,312,8.0,14.0,90,0.00,,,0.00,WeatherCatV1.24B11,2013-04-10 15:15:00,
2013-04-10 10:16:00,49.2,46.4,29.78,NNW,338,5.0,15.0,90,0.00,,,0.06,WeatherCatV1.15B25,2013-04-10 15:16:00,
2013-04-10 10:20:00,48.7,45.9,29.79,NW,316,8.0,9.0,90,0.00,,,0.00,WeatherCatV1.24B11,2013-04-10 15:20:00,
2013-04-10 10:21:00,49.0,46.2,29.78,NW,323,4.0,14.0,90,0.00,,,0.06,WeatherCatV1.15B25,2013-04-10 15:21:00,
2013-04-10 10:25:00,48.5,45.7,29.79,NW,326,8.0,18.0,90,0.00,,,0.00,WeatherCatV1.24B11,2013-04-10 15:25:00,
2013-04-10 10:26:00,48.9,46.1,29.78,NNW,329,8.0,17.0,90,0.00,,,0.06,WeatherCatV1.15B25,2013-04-10 15:26:00,
2013-04-10 10:30:00,48.2,46.6,29.78,NW,323,11.0,12.0,94,0.00,,,0.00,WeatherCatV1.24B11,2013-04-10 15:30:00,
2013-04-10 10:31:00,48.8,46.0,29.78,NW,308,8.0,12.0,90,0.00,,,0.06,WeatherCatV1.15B25,2013-04-10 15:31:00,
2013-04-10 10:35:00,48.2,45.4,29.78,NNW,329,10.0,21.0,90,0.00,,,0.00,WeatherCatV1.24B11,2013-04-10 15:35:00,
2013-04-10 10:36:00,48.7,45.9,29.79,NW,310,10.0,15.0,90,0.00,,,0.06,WeatherCatV1.15B25,2013-04-10 15:36:00,
2013-04-10 10:40:00,48.2,45.4,29.79,NW,323,8.0,16.0,90,0.00,,,0.00,WeatherCatV1.24B11,2013-04-10 15:40:00,
2013-04-10 10:41:00,48.3,45.5,29.79,WNW,302,11.0,19.0,90,0.00,,,0.06,WeatherCatV1.15B25,2013-04-10 15:41:00,
2013-04-10 10:45:00,48.2,45.4,29.80,NW,314,8.0,13.0,90,0.00,,,0.00,WeatherCatV1.24B11,2013-04-10 15:45:00,
2013-04-10 10:46:00,48.2,46.6,29.78,NW,310,8.0,13.0,94,0.00,,,0.07,WeatherCatV1.15B25,2013-04-10 15:46:00,
2013-04-10 10:50:00,48.2,46.6,29.79,NW,319,8.0,14.0,94,0.00,,,0.00,WeatherCatV1.24B11,2013-04-10 15:50:00,
2013-04-10 10:51:00,48.1,45.3,29.78,NNW,346,8.0,13.0,90,0.00,,,0.07,WeatherCatV1.15B25,2013-04-10 15:51:00,
2013-04-10 10:55:00,48.2,45.4,29.81,NW,317,8.0,16.0,90,0.00,,,0.00,WeatherCatV1.24B11,2013-04-10 15:55:00,
2013-04-10 10:56:00,48.2,45.4,29.80,WNW,291,11.0,13.0,90,0.00,,,0.07,WeatherCatV1.15B25,2013-04-10 15:56:00,
2013-04-10 11:00:00,48.1,45.3,29.81,NW,321,9.0,16.0,90,0.00,,,0.00,WeatherCatV1.24B11,2013-04-10 16:00:00,
2013-04-10 11:01:00,48.2,45.4,29.80,WNW,303,6.0,14.0,90,0.00,,,0.07,WeatherCatV1.15B25,2013-04-10 16:01:00,
2013-04-10 11:05:00,48.0,45.2,29.81,NW,316,9.0,14.0,90,0.00,,,0.00,WeatherCatV1.24B11,2013-04-10 16:05:00,
2013-04-10 11:06:00,48.2,45.4,29.81,West,280,8.0,16.0,90,0.00,,,0.07,WeatherCatV1.15B25,2013-04-10 16:06:00,
2013-04-10 11:10:00,47.9,45.1,29.81,NW,314,9.0,15.0,90,0.00,,,0.00,WeatherCatV1.24B11,2013-04-10 16:10:00,
2013-04-10 11:11:00,48.1,45.3,29.81,NW,321,4.0,12.0,90,0.00,,,0.07,WeatherCatV1.15B25,2013-04-10 16:11:00,
2013-04-10 11:15:00,47.9,45.1,29.81,NW,326,9.0,21.0,90,0.00,,,0.00,WeatherCatV1.24B11,2013-04-10 16:15:00,
2013-04-10 11:16:00,48.0,45.2,29.81,NW,321,3.0,15.0,90,0.00,,,0.07,WeatherCatV1.15B25,2013-04-10 16:16:00,
2013-04-10 11:20:00,47.9,45.1,29.81,NW,325,10.0,13.0,90,0.00,,,0.00,WeatherCatV1.24B11,2013-04-10 16:20:00,
2013-04-10 11:21:00,48.0,45.2,29.81,NNW,327,16.0,16.0,90,0.00,,,0.07,WeatherCatV1.15B25,2013-04-10 16:21:00,
2013-04-10 11:25:00,47.9,45.1,29.81,NW,320,11.0,20.0,90,0.00,,,0.00,WeatherCatV1.24B11,2013-04-10 16:25:00,
2013-04-10 11:27:00,48.0,45.2,29.81,NW,320,13.0,17.0,90,0.00,,,0.07,WeatherCatV1.15B25,2013-04-10 16:27:00,
2013-04-10 11:30:00,48.1,45.3,29.81,NW,320,11.0,19.0,90,0.00,,,0.00,WeatherCatV1.24B11,2013-04-10 16:30:00,
2013-04-10 11:31:00,47.9,45.1,29.81,NW,304,23.0,23.0,90,0.00,,,0.07,WeatherCatV1.15B25,2013-04-10 16:31:00,
2013-04-10 11:35:00,47.9,45.1,29.81,NW,317,11.0,11.0,90,0.00,,,0.00,WeatherCatV1.24B11,2013-04-10 16:35:00,
2013-04-10 11:36:00,47.9,45.1,29.81,North,349,18.0,19.0,90,0.00,,,0.07,WeatherCatV1.15B25,2013-04-10 16:36:00,
2013-04-10 11:40:00,48.0,45.2,29.81,NW,318,10.0,17.0,90,0.00,,,0.00,WeatherCatV1.24B11,2013-04-10 16:40:00,
2013-04-10 11:41:00,48.0,45.2,29.81,NW,306,15.0,15.0,90,0.00,,,0.07,WeatherCatV1.15B25,2013-04-10 16:41:00,
2013-04-10 11:45:00,48.1,45.3,29.81,NW,322,10.0,13.0,90,0.00,,,0.00,WeatherCatV1.24B11,2013-04-10 16:45:00,
2013-04-10 11:47:00,48.0,45.2,29.81,NNW,348,15.0,16.0,90,0.00,,,0.07,WeatherCatV1.15B25,2013-04-10 16:47:00,
2013-04-10 11:50:00,48.3,45.2,29.82,NW,318,8.0,16.0,89,0.00,,,0.00,WeatherCatV1.24B11,2013-04-10 16:50:00,
2013-04-10 11:52:00,47.9,45.1,29.81,NW,309,8.0,15.0,90,0.00,,,0.07,WeatherCatV1.15B25,2013-04-10 16:52:00,
2013-04-10 11:55:00,48.4,45.3,29.82,NW,324,9.0,12.0,89,0.00,,,0.00,WeatherCatV1.24B11,2013-04-10 16:55:00,
2013-04-10 11:56:00,48.1,45.0,29.81,NW,323,13.0,13.0,89,0.00,,,0.07,WeatherCatV1.15B25,2013-04-10 16:56:00,
2013-04-10 12:00:00,48.6,45.5,29.82,NNW,330,10.0,19.0,89,0.00,,,0.00,WeatherCatV1.24B11,2013-04-10 17:00:00,
2013-04-10 12:01:00,48.3,45.2,29.81,NW,322,8.0,13.0,89,0.00,,,0.07,WeatherCatV1.15B25,2013-04-10 17:01:00,
2013-04-10 12:05:00,48.6,45.2,29.82,NW,326,9.0,9.0,88,0.00,,,0.00,WeatherCatV1.24B11,2013-04-10 17:05:00,
2013-04-10 12:06:00,48.3,45.2,29.82,NNE,13,12.0,17.0,89,0.00,,,0.07,WeatherCatV1.15B25,2013-04-10 17:06:00,
2013-04-10 12:10:00,48.7,45.0,29.82,NW,322,10.0,23.0,87,0.00,,,0.00,WeatherCatV1.24B11,2013-04-10 17:10:00,
2013-04-10 12:11:00,48.5,45.4,29.82,NNW,338,3.0,20.0,89,0.00,,,0.07,WeatherCatV1.15B25,2013-04-10 17:11:00,
2013-04-10 12:15:00,48.9,45.2,29.82,NW,321,9.0,18.0,87,0.00,,,0.00,WeatherCatV1.24B11,2013-04-10 17:15:00,
2013-04-10 12:16:00,48.6,45.2,29.82,NNW,327,10.0,14.0,88,0.00,,,0.07,WeatherCatV1.15B25,2013-04-10 17:16:00,
2013-04-10 12:20:00,48.9,44.9,29.82,NW,320,9.0,23.0,86,0.00,,,0.00,WeatherCatV1.24B11,2013-04-10 17:20:00,
2013-04-10 12:21:00,48.7,45.0,29.82,North,355,9.0,17.0,87,0.00,,,0.07,WeatherCatV1.15B25,2013-04-10 17:21:00,
2013-04-10 12:25:00,48.7,44.4,29.83,NW,323,11.0,22.0,85,0.00,,,0.00,WeatherCatV1.24B11,2013-04-10 17:25:00,
2013-04-10 12:26:00,48.9,45.2,29.82,NW,319,2.0,13.0,87,0.00,,,0.07,WeatherCatV1.15B25,2013-04-10 17:26:00,
2013-04-10 12:30:00,48.6,44.3,29.83,NW,326,12.0,19.0,85,0.00,,,0.00,WeatherCatV1.24B11,2013-04-10 17:30:00,
2013-04-10 12:31:00,48.9,44.9,29.82,NW,314,8.0,19.0,86,0.00,,,0.07,WeatherCatV1.15B25,2013-04-10 17:31:00,
2013-04-10 12:35:00,48.7,44.4,29.83,NW,322,10.0,13.0,85,0.00,,,0.00,WeatherCatV1.24B11,2013-04-10 17:35:00,
2013-04-10 12:36:00,48.7,44.4,29.82,NW,319,9.0,22.0,85,0.00,,,0.07,WeatherCatV1.15B25,2013-04-10 17:36:00,
2013-04-10 12:40:00,48.7,44.4,29.83,NW,322,9.0,22.0,85,0.00,,,0.00,WeatherCatV1.24B11,2013-04-10 17:40:00,
2013-04-10 12:41:00,48.6,44.3,29.83,WNW,300,16.0,18.0,85,0.00,,,0.07,WeatherCatV1.15B25,2013-04-10 17:41:00,
2013-04-10 12:45:00,48.6,44.0,29.83,NW,319,10.0,17.0,84,0.00,,,0.00,WeatherCatV1.24B11,2013-04-10 17:45:00,
2013-04-10 12:46:00,48.7,44.4,29.83,WNW,296,11.0,12.0,85,0.00,,,0.07,WeatherCatV1.15B25,2013-04-10 17:46:00,
2013-04-10 12:50:00,48.7,44.4,29.83,NW,324,10.0,19.0,85,0.00,,,0.00,WeatherCatV1.24B11,2013-04-10 17:50:00,
2013-04-10 12:51:00,48.7,44.4,29.83,NW,313,3.0,20.0,85,0.00,,,0.07,WeatherCatV1.15B25,2013-04-10 17:51:00,
2013-04-10 12:55:00,48.9,44.6,29.83,NW,323,11.0,19.0,85,0.00,,,0.00,WeatherCatV1.24B11,2013-04-10 17:55:00,
2013-04-10 12:56:00,48.6,44.0,29.83,NNW,333,10.0,17.0,84,0.00,,,0.07,WeatherCatV1.15B25,2013-04-10 17:56:00,
2013-04-10 13:00:00,49.4,44.8,29.83,NNW,328,9.0,15.0,84,0.00,,,0.00,WeatherCatV1.24B11,2013-04-10 18:00:00,
2013-04-10 13:01:00,48.7,44.4,29.83,NNW,344,8.0,19.0,85,0.00,,,0.07,WeatherCatV1.15B25,2013-04-10 18:01:00,
2013-04-10 13:05:00,49.7,45.1,29.83,NNW,329,9.0,16.0,84,0.00,,,0.00,WeatherCatV1.24B11,2013-04-10 18:05:00,
2013-04-10 13:06:00,48.9,44.3,29.83,NW,326,6.0,16.0,84,0.00,,,0.07,WeatherCatV1.15B25,2013-04-10 18:06:00,
2013-04-10 13:10:00,50.2,45.5,29.82,NNW,327,9.0,20.0,84,0.00,,,0.00,WeatherCatV1.24B11,2013-04-10 18:10:00,
2013-04-10 13:11:00,49.3,45.0,29.83,NW,319,9.0,15.0,85,0.00,,,0.07,WeatherCatV1.15B25,2013-04-10 18:11:00,
2013-04-10 13:15:00,50.4,45.4,29.82,NNW,335,9.0,15.0,83,0.00,,,0.00,WeatherCatV1.24B11,2013-04-10 18:15:00,
2013-04-10 13:16:00,49.6,45.0,29.83,West,279,16.0,19.0,84,0.00,,,0.07,WeatherCatV1.15B25,2013-04-10 18:16:00,
2013-04-10 13:20:00,50.4,45.4,29.82,NNW,327,9.0,13.0,83,0.00,,,0.00,WeatherCatV1.24B11,2013-04-10 18:20:00,
2013-04-10 13:21:00,50.1,45.5,29.83,NW,315,4.0,14.0,84,0.00,,,0.07,WeatherCatV1.15B25,2013-04-10 18:21:00,
2013-04-10 13:25:00,50.6,45.6,29.82,NNW,331,11.0,19.0,83,0.00,,,0.00,WeatherCatV1.24B11,2013-04-10 18:25:00,
2013-04-10 13:26:00,50.3,45.3,29.82,NW,306,6.0,12.0,83,0.00,,,0.07,WeatherCatV1.15B25,2013-04-10 18:26:00,
2013-04-10 13:30:00,51.0,46.0,29.82,NNW,327,11.0,11.0,83,0.00,,,0.00,WeatherCatV1.24B11,2013-04-10 18:30:00,
2013-04-10 13:31:00,50.4,45.4,29.82,NNE,14,10.0,21.0,83,0.00,,,0.07,WeatherCatV1.15B25,2013-04-10 18:31:00,
2013-04-10 13:35:00,51.8,46.8,29.82,NW,316,9.0,16.0,83,0.00,,,0.00,WeatherCatV1.24B11,2013-04-10 18:35:00,
2013-04-10 13:36:00,50.4,45.4,29.82,NNW,332,13.0,21.0,83,0.00,,,0.07,WeatherCatV1.15B25,2013-04-10 18:36:00,
2013-04-10 13:40:00,52.0,46.3,29.82,NW,325,9.0,15.0,81,0.00,,,0.00,WeatherCatV1.24B11,2013-04-10 18:40:00,
2013-04-10 13:41:00,50.7,45.7,29.82,NNW,333,12.0,25.0,83,0.00,,,0.07,WeatherCatV1.15B25,2013-04-10 18:41:00,
2013-04-10 13:45:00,52.3,46.7,29.81,NW,324,9.0,11.0,81,0.00,,,0.00,WeatherCatV1.24B11,2013-04-10 18:45:00,
2013-04-10 13:46:00,51.4,46.4,29.82,NW,316,7.0,9.0,83,0.00,,,0.07,WeatherCatV1.15B25,2013-04-10 18:46:00,
2013-04-10 13:50:00,52.5,46.8,29.81,NNW,328,9.0,11.0,81,0.00,,,0.00,WeatherCatV1.24B11,2013-04-10 18:50:00,
2013-04-10 13:51:00,51.9,46.6,29.82,NW,317,15.0,18.0,82,0.00,,,0.07,WeatherCatV1.15B25,2013-04-10 18:51:00,
2013-04-10 13:55:00,52.9,47.2,29.81,NNW,333,9.0,14.0,81,0.00,,,0.00,WeatherCatV1.24B11,2013-04-10 18:55:00,
2013-04-10 13:56:00,52.2,46.9,29.81,NNW,336,5.0,13.0,82,0.00,,,0.07,WeatherCatV1.15B25,2013-04-10 18:56:00,
2013-04-10 14:00:00,53.3,47.6,29.81,NNW,337,7.0,13.0,81,0.00,,,0.00,WeatherCatV1.24B11,2013-04-10 19:00:00,
2013-04-10 14:01:00,52.4,46.7,29.81,NNW,335,5.0,12.0,81,0.00,,,0.07,WeatherCatV1.15B25,2013-04-10 19:01:00,
2013-04-10 14:05:00,53.5,47.5,29.81,NNW,346,7.0,10.0,80,0.00,,,0.00,WeatherCatV1.24B11,2013-04-10 19:05:00,
2013-04-10 14:06:00,52.6,46.9,29.81,NNW,338,8.0,14.0,81,0.00,,,0.07,WeatherCatV1.15B25,2013-04-10 19:06:00,
2013-04-10 14:10:00,53.7,47.3,29.81,NNW,334,8.0,16.0,79,0.00,,,0.00,WeatherCatV1.24B11,2013-04-10 19:10:00,
2013-04-10 14:11:00,53.1,47.4,29.81,NNW,329,9.0,17.0,81,0.00,,,0.07,WeatherCatV1.15B25,2013-04-10 19:11:00,
2013-04-10 14:15:00,54.2,48.2,29.81,NNW,335,7.0,10.0,80,0.00,,,0.00,WeatherCatV1.24B11,2013-04-10 19:15:00,
2013-04-10 14:16:00,53.4,47.4,29.81,NNW,342,13.0,14.0,80,0.00,,,0.07,WeatherCatV1.15B25,2013-04-10 19:16:00,
2013-04-10 14:20:00,54.9,48.2,29.80,NNW,339,7.0,15.0,78,0.00,,,0.00,WeatherCatV1.24B11,2013-04-10 19:20:00,
2013-04-10 14:21:00,53.6,47.6,29.81,NW,313,9.0,14.0,80,0.00,,,0.07,WeatherCatV1.15B25,2013-04-10 19:21:00,
2013-04-10 14:25:00,55.2,48.1,29.81,NNW,335,8.0,15.0,77,0.00,,,0.00,WeatherCatV1.24B11,2013-04-10 19:25:00,
2013-04-10 14:26:00,54.0,48.0,29.81,WNW,302,4.0,14.0,80,0.00,,,0.07,WeatherCatV1.15B25,2013-04-10 19:26:00,
2013-04-10 14:30:00,55.4,48.7,29.80,NNW,335,9.0,16.0,78,0.00,,,0.00,WeatherCatV1.24B11,2013-04-10 19:30:00,
2013-04-10 14:31:00,54.8,48.4,29.81,NNW,336,17.0,17.0,79,0.00,,,0.07,WeatherCatV1.15B25,2013-04-10 19:31:00,
2013-04-10 14:35:00,55.8,48.3,29.80,NNW,334,9.0,15.0,76,0.00,,,0.00,WeatherCatV1.24B11,2013-04-10 19:35:00,
2013-04-10 14:36:00,55.2,48.8,29.81,WNW,296,8.0,20.0,79,0.00,,,0.07,WeatherCatV1.15B25,2013-04-10 19:36:00,
2013-04-10 14:40:00,55.7,48.2,29.80,NW,326,9.0,13.0,76,0.00,,,0.00,WeatherCatV1.24B11,2013-04-10 19:40:00,
2013-04-10 14:41:00,55.2,48.1,29.80,NW,307,8.0,15.0,77,0.00,,,0.07,WeatherCatV1.15B25,2013-04-10 19:41:00,
2013-04-10 14:45:00,55.5,48.1,29.80,NNW,331,9.0,18.0,76,0.00,,,0.00,WeatherCatV1.24B11,2013-04-10 19:45:00,
2013-04-10 14:46:00,55.8,48.7,29.80,NW,308,8.0,17.0,77,0.00,,,0.07,WeatherCatV1.15B25,2013-04-10 19:46:00,
2013-04-10 14:50:00,55.3,47.9,29.80,NNW,337,10.0,15.0,76,0.00,,,0.00,WeatherCatV1.24B11,2013-04-10 19:50:00,
2013-04-10 14:51:00,55.7,47.9,29.80,WNW,295,3.0,18.0,75,0.00,,,0.07,WeatherCatV1.15B25,2013-04-10 19:51:00,
2013-04-10 14:55:00,55.3,47.9,29.80,NNW,328,10.0,14.0,76,0.00,,,0.00,WeatherCatV1.24B11,2013-04-10 19:55:00,
2013-04-10 14:56:00,55.5,48.1,29.80,WNW,300,7.0,18.0,76,0.00,,,0.07,WeatherCatV1.15B25,2013-04-10 19:56:00,
2013-04-10 15:00:00,55.1,47.7,29.80,NNW,332,10.0,14.0,76,0.00,,,0.00,WeatherCatV1.24B11,2013-04-10 20:00:00,
2013-04-10 15:01:00,55.4,48.0,29.80,NW,322,8.0,17.0,76,0.00,,,0.07,WeatherCatV1.15B25,2013-04-10 20:01:00,
2013-04-10 15:05:00,55.0,47.6,29.80,NNW,341,10.0,17.0,76,0.00,,,0.00,WeatherCatV1.24B11,2013-04-10 20:05:00,
2013-04-10 15:06:00,55.3,47.9,29.80,WNW,302,8.0,13.0,76,0.00,,,0.07,WeatherCatV1.15B25,2013-04-10 20:06:00,
2013-04-10 15:10:00,55.0,47.9,29.80,NNW,338,8.0,11.0,77,0.00,,,0.00,WeatherCatV1.24B11,2013-04-10 20:10:00,
2013-04-10 15:11:00,55.1,47.7,29.80,NW,314,11.0,17.0,76,0.00,,,0.07,WeatherCatV1.15B25,2013-04-10 20:11:00,
2013-04-10 15:15:00,55.0,47.9,29.80,NNW,343,7.0,17.0,77,0.00,,,0.00,WeatherCatV1.24B11,2013-04-10 20:15:00,
2013-04-10 15:16:00,55.1,48.0,29.80,North,11,13.0,22.0,77,0.00,,,0.07,WeatherCatV1.15B25,2013-04-10 20:16:00,
2013-04-10 15:20:00,55.1,48.4,29.80,NNW,331,7.0,12.0,78,0.00,,,0.00,WeatherCatV1.24B11,2013-04-10 20:20:00,
2013-04-10 15:21:00,55.0,47.9,29.80,NNW,342,11.0,11.0,77,0.00,,,0.07,WeatherCatV1.15B25,2013-04-10 20:21:00,
2013-04-10 15:25:00,55.3,48.2,29.80,NNW,332,6.0,16.0,77,0.00,,,0.00,WeatherCatV1.24B11,2013-04-10 20:25:00,
2013-04-10 15:26:00,55.1,48.0,29.80,NW,316,7.0,17.0,77,0.00,,,0.07,WeatherCatV1.15B25,2013-04-10 20:26:00,
2013-04-10 15:30:00,55.1,47.7,29.79,NNW,343,7.0,13.0,76,0.00,,,0.00,WeatherCatV1.24B11,2013-04-10 20:30:00,
2013-04-10 15:31:00,55.0,47.9,29.80,WNW,294,8.0,13.0,77,0.00,,,0.07,WeatherCatV1.15B25,2013-04-10 20:31:00,
2013-04-10 15:35:00,55.1,48.0,29.79,NNW,327,8.0,16.0,77,0.00,,,0.00,WeatherCatV1.24B11,2013-04-10 20:35:00,
2013-04-10 15:36:00,55.2,48.1,29.80,NW,310,5.0,7.0,77,0.00,,,0.07,WeatherCatV1.15B25,2013-04-10 20:36:00,
2013-04-10 15:40:00,55.2,47.8,29.79,NNW,330,8.0,19.0,76,0.00,,,0.00,WeatherCatV1.24B11,2013-04-10 20:40:00,
2013-04-10 15:41:00,55.2,48.1,29.79,NNW,334,8.0,16.0,77,0.00,,,0.07,WeatherCatV1.15B25,2013-04-10 20:41:00,
2013-04-10 15:45:00,55.0,47.6,29.79,NNW,335,8.0,19.0,76,0.00,,,0.00,WeatherCatV1.24B11,2013-04-10 20:45:00,
2013-04-10 15:46:00,55.1,48.0,29.79,NNW,348,7.0,14.0,77,0.00,,,0.07,WeatherCatV1.15B25,2013-04-10 20:46:00,
2013-04-10 15:50:00,55.0,47.9,29.79,NNW,330,9.0,12.0,77,0.00,,,0.00,WeatherCatV1.24B11,2013-04-10 20:50:00,
2013-04-10 15:51:00,55.2,48.1,29.79,NW,321,6.0,15.0,77,0.00,,,0.07,WeatherCatV1.15B25,2013-04-10 20:51:00,
2013-04-10 15:55:00,55.0,47.9,29.78,NW,322,8.0,13.0,77,0.00,,,0.00,WeatherCatV1.24B11,2013-04-10 20:55:00,
2013-04-10 15:56:00,55.0,47.6,29.79,WNW,294,1.0,16.0,76,0.00,,,0.07,WeatherCatV1.15B25,2013-04-10 20:56:00,
2013-04-10 16:00:00,55.1,47.7,29.78,NNW,333,8.0,11.0,76,0.00,,,0.00,WeatherCatV1.24B11,2013-04-10 21:00:00,
2013-04-10 16:01:00,54.9,47.8,29.79,NW,322,3.0,13.0,77,0.00,,,0.07,WeatherCatV1.15B25,2013-04-10 21:01:00,
2013-04-10 16:05:00,55.2,47.8,29.78,North,349,8.0,16.0,76,0.00,,,0.00,WeatherCatV1.24B11,2013-04-10 21:05:00,
2013-04-10 16:06:00,55.0,47.9,29.78,North,0,5.0,12.0,77,0.00,,,0.07,WeatherCatV1.15B25,2013-04-10 21:06:00,
2013-04-10 16:10:00,55.7,48.2,29.78,NNW,340,8.0,8.0,76,0.00,,,0.00,WeatherCatV1.24B11,2013-04-10 21:10:00,
2013-04-10 16:11:00,55.1,47.7,29.78,NNW,346,9.0,16.0,76,0.00,,,0.07,WeatherCatV1.15B25,2013-04-10 21:11:00,
2013-04-10 16:15:00,56.5,49.0,29.77,NNW,342,6.0,8.0,76,0.00,,,0.00,WeatherCatV1.24B11,2013-04-10 21:15:00,
2013-04-10 16:16:00,55.1,47.7,29.78,NE,52,7.0,18.0,76,0.00,,,0.07,WeatherCatV1.15B25,2013-04-10 21:16:00,
2013-04-10 16:20:00,56.8,49.0,29.77,NNW,344,5.0,8.0,75,0.00,,,0.00,WeatherCatV1.24B11,2013-04-10 21:20:00,
2013-04-10 16:21:00,55.6,48.2,29.78,NNW,333,4.0,14.0,76,0.00,,,0.07,WeatherCatV1.15B25,2013-04-10 21:21:00,
2013-04-10 16:25:00,56.9,48.7,29.77,North,351,5.0,15.0,74,0.00,,,0.00,WeatherCatV1.24B11,2013-04-10 21:25:00,
2013-04-10 16:26:00,56.4,48.9,29.77,NNW,335,2.0,13.0,76,0.00,,,0.07,WeatherCatV1.15B25,2013-04-10 21:26:00,
2013-04-10 16:30:00,56.5,48.3,29.77,NNW,346,7.0,11.0,74,0.00,,,0.00,WeatherCatV1.24B11,2013-04-10 21:30:00,
2013-04-10 16:31:00,56.8,49.0,29.77,NNW,331,6.0,10.0,75,0.00,,,0.07,WeatherCatV1.15B25,2013-04-10 21:31:00,
2013-04-10 16:35:00,56.3,48.1,29.77,North,349,7.0,11.0,74,0.00,,,0.00,WeatherCatV1.24B11,2013-04-10 21:35:00,
2013-04-10 16:36:00,57.0,48.8,29.78,North,0,12.0,15.0,74,0.00,,,0.07,WeatherCatV1.15B25,2013-04-10 21:36:00,
2013-04-10 16:40:00,56.2,48.0,29.77,NNW,342,8.0,17.0,74,0.00,,,0.00,WeatherCatV1.24B11,2013-04-10 21:40:00,
2013-04-10 16:42:00,56.6,48.4,29.77,NNW,333,1.0,18.0,74,0.00,,,0.07,WeatherCatV1.15B25,2013-04-10 21:42:00,
2013-04-10 16:45:00,56.3,48.1,29.77,NNW,343,7.0,12.0,74,0.00,,,0.00,WeatherCatV1.24B11,2013-04-10 21:45:00,
2013-04-10 16:47:00,56.4,48.6,29.77,NE,44,2.0,14.0,75,0.00,,,0.07,WeatherCatV1.15B25,2013-04-10 21:47:00,
2013-04-10 16:50:00,56.4,48.2,29.78,North,355,5.0,5.0,74,0.00,,,0.00,WeatherCatV1.24B11,2013-04-10 21:50:00,
2013-04-10 16:52:00,56.3,48.1,29.77,NW,324,12.0,20.0,74,0.00,,,0.07,WeatherCatV1.15B25,2013-04-10 21:52:00,
2013-04-10 16:55:00,56.7,48.9,29.78,NNW,343,4.0,7.0,75,0.00,,,0.00,WeatherCatV1.24B11,2013-04-10 21:55:00,
2013-04-10 16:57:00,56.3,48.1,29.77,NW,316,7.0,13.0,74,0.00,,,0.07,WeatherCatV1.15B25,2013-04-10 21:57:00,
2013-04-10 17:00:00,56.8,48.6,29.78,NNW,344,4.0,5.0,74,0.00,,,0.00,WeatherCatV1.24B11,2013-04-10 22:00:00,
2013-04-10 17:02:00,56.4,48.2,29.77,NNE,30,2.0,9.0,74,0.00,,,0.07,WeatherCatV1.15B25,2013-04-10 22:02:00,
2013-04-10 17:05:00,57.0,48.8,29.78,North,5,4.0,4.0,74,0.00,,,0.00,WeatherCatV1.24B11,2013-04-10 22:05:00,
2013-04-10 17:07:00,56.6,48.8,29.78,NW,315,3.0,6.0,75,0.00,,,0.07,WeatherCatV1.15B25,2013-04-10 22:07:00,
2013-04-10 17:10:00,57.1,48.9,29.78,North,2,3.0,9.0,74,0.00,,,0.00,WeatherCatV1.24B11,2013-04-10 22:10:00,
2013-04-10 17:12:00,56.8,48.6,29.77,NNE,24,5.0,13.0,74,0.00,,,0.07,WeatherCatV1.15B25,2013-04-10 22:12:00,
2013-04-10 17:15:00,57.1,48.5,29.78,North,350,5.0,6.0,73,0.00,,,0.00,WeatherCatV1.24B11,2013-04-10 22:15:00,
2013-04-10 17:17:00,56.9,49.1,29.78,NW,319,8.0,10.0,75,0.00,,,0.07,WeatherCatV1.15B25,2013-04-10 22:17:00,
2013-04-10 17:20:00,57.2,49.0,29.77,NNW,342,6.0,10.0,74,0.00,,,0.00,WeatherCatV1.24B11,2013-04-10 22:20:00,
2013-04-10 17:22:00,57.1,48.9,29.78,NNW,342,3.0,11.0,74,0.00,,,0.07,WeatherCatV1.15B25,2013-04-10 22:22:00,
2013-04-10 17:25:00,57.3,49.1,29.77,NNW,339,6.0,9.0,74,0.00,,,0.00,WeatherCatV1.24B11,2013-04-10 22:25:00,
2013-04-10 17:27:00,57.1,48.9,29.78,NNE,22,8.0,11.0,74,0.00,,,0.07,WeatherCatV1.15B25,2013-04-10 22:27:00,
2013-04-10 17:30:00,57.5,48.9,29.77,NNW,338,6.0,11.0,73,0.00,,,0.00,WeatherCatV1.24B11,2013-04-10 22:30:00,
2013-04-10 17:32:00,57.1,48.5,29.78,NW,313,9.0,17.0,73,0.00,,,0.07,WeatherCatV1.15B25,2013-04-10 22:32:00,
2013-04-10 17:35:00,57.4,48.5,29.78,NNW,344,7.0,12.0,72,0.00,,,0.00,WeatherCatV1.24B11,2013-04-10 22:35:00,
2013-04-10 17:37:00,57.3,49.1,29.77,NNW,341,3.0,9.0,74,0.00,,,0.07,WeatherCatV1.15B25,2013-04-10 22:37:00,
2013-04-10 17:40:00,57.4,48.8,29.78,NNW,334,7.0,10.0,73,0.00,,,0.00,WeatherCatV1.24B11,2013-04-10 22:40:00,
2013-04-10 17:42:00,57.5,48.9,29.77,NW,314,8.0,14.0,73,0.00,,,0.07,WeatherCatV1.15B25,2013-04-10 22:42:00,
2013-04-10 17:45:00,57.4,48.5,29.78,NNW,334,6.0,11.0,72,0.00,,,0.00,WeatherCatV1.24B11,2013-04-10 22:45:00,
2013-04-10 17:47:00,57.4,48.4,29.78,NNW,332,10.0,14.0,72,0.00,,,0.07,WeatherCatV1.15B25,2013-04-10 22:47:00,
2013-04-10 17:50:00,57.4,48.5,29.78,NNW,328,6.0,12.0,72,0.00,,,0.00,WeatherCatV1.24B11,2013-04-10 22:50:00,
2013-04-10 17:52:00,57.4,48.8,29.78,NNW,336,10.0,11.0,73,0.00,,,0.07,WeatherCatV1.15B25,2013-04-10 22:52:00,
2013-04-10 17:55:00,57.5,48.9,29.78,NNW,336,6.0,9.0,73,0.00,,,0.00,WeatherCatV1.24B11,2013-04-10 22:55:00,
2013-04-10 17:57:00,57.5,48.5,29.78,NW,310,9.0,15.0,72,0.00,,,0.07,WeatherCatV1.15B25,2013-04-10 22:57:00,
2013-04-10 18:00:00,57.5,48.9,29.78,NNW,339,6.0,13.0,73,0.00,,,0.00,WeatherCatV1.24B11,2013-04-10 23:00:00,
2013-04-10 18:02:00,57.4,48.4,29.78,NNE,26,8.0,13.0,72,0.00,,,0.07,WeatherCatV1.15B25,2013-04-10 23:02:00,
2013-04-10 18:05:00,57.7,49.1,29.78,North,350,6.0,9.0,73,0.00,,,0.00,WeatherCatV1.24B11,2013-04-10 23:05:00,
2013-04-10 18:07:00,57.5,48.9,29.78,NW,317,2.0,9.0,73,0.00,,,0.07,WeatherCatV1.15B25,2013-04-10 23:07:00,
2013-04-10 18:10:00,58.0,49.0,29.78,NNW,341,6.0,10.0,72,0.00,,,0.00,WeatherCatV1.24B11,2013-04-10 23:10:00,
2013-04-10 18:12:00,57.5,48.9,29.78,NW,326,10.0,13.0,73,0.00,,,0.07,WeatherCatV1.15B25,2013-04-10 23:12:00,
2013-04-10 18:15:00,57.9,49.3,29.78,NNW,347,6.0,9.0,73,0.00,,,0.00,WeatherCatV1.24B11,2013-04-10 23:15:00,
2013-04-10 18:17:00,57.7,49.1,29.78,ENE,69,2.0,12.0,73,0.00,,,0.07,WeatherCatV1.15B25,2013-04-10 23:17:00,
2013-04-10 18:20:00,57.9,49.3,29.78,NNW,346,4.0,8.0,73,0.00,,,0.00,WeatherCatV1.24B11,2013-04-10 23:20:00,
2013-04-10 18:22:00,58.0,49.4,29.78,NW,323,13.0,13.0,73,0.00,,,0.07,WeatherCatV1.15B25,2013-04-10 23:22:00,
2013-04-10 18:25:00,58.0,49.4,29.78,NNW,342,3.0,6.0,73,0.00,,,0.00,WeatherCatV1.24B11,2013-04-10 23:25:00,
2013-04-10 18:27:00,57.9,49.3,29.78,NW,323,5.0,10.0,73,0.00,,,0.07,WeatherCatV1.15B25,2013-04-10 23:27:00,
2013-04-10 18:30:00,58.2,49.2,29.78,North,352,4.0,9.0,72,0.00,,,0.00,WeatherCatV1.24B11,2013-04-10 23:30:00,
2013-04-10 18:32:00,57.9,49.3,29.78,NE,46,2.0,9.0,73,0.00,,,0.07,WeatherCatV1.15B25,2013-04-10 23:32:00,
2013-04-10 18:35:00,58.4,49.4,29.78,NNW,341,4.0,9.0,72,0.00,,,0.00,WeatherCatV1.24B11,2013-04-10 23:35:00,
2013-04-10 18:37:00,57.9,49.3,29.78,NNW,341,4.0,6.0,73,0.00,,,0.07,WeatherCatV1.15B25,2013-04-10 23:37:00,
2013-04-10 18:40:00,58.4,49.0,29.78,NNW,343,5.0,11.0,71,0.00,,,0.00,WeatherCatV1.24B11,2013-04-10 23:40:00,
2013-04-10 18:42:00,58.2,49.2,29.78,North,9,4.0,7.0,72,0.00,,,0.07,WeatherCatV1.15B25,2013-04-10 23:42:00,
2013-04-10 18:45:00,58.1,48.7,29.78,NNW,342,5.0,8.0,71,0.00,,,0.00,WeatherCatV1.24B11,2013-04-10 23:45:00,
2013-04-10 18:47:00,58.4,49.4,29.78,WNW,300,0.0,10.0,72,0.00,,,0.07,WeatherCatV1.15B25,2013-04-10 23:47:00,
2013-04-10 18:50:00,57.7,48.4,29.78,NNW,338,5.0,10.0,71,0.00,,,0.00,WeatherCatV1.24B11,2013-04-10 23:50:00,
2013-04-10 18:52:00,58.5,49.1,29.78,North,355,11.0,14.0,71,0.00,,,0.07,WeatherCatV1.15B25,2013-04-10 23:52:00,
2013-04-10 18:55:00,57.4,48.5,29.79,North,355,4.0,8.0,72,0.00,,,0.00,WeatherCatV1.24B11,2013-04-10 23:55:00,
2013-04-10 18:57:00,58.2,48.8,29.78,NNW,342,0.0,12.0,71,0.00,,,0.07,WeatherCatV1.15B25,2013-04-10 23:57:00,
2013-04-10 19:00:00,57.2,48.2,29.79,North,349,3.0,11.0,72,0.00,,,0.00,WeatherCatV1.24B11,2013-04-11 00:00:00,
2013-04-10 19:02:00,57.8,48.5,29.78,North,5,4.0,10.0,71,0.00,,,0.07,WeatherCatV1.15B25,2013-04-11 00:02:00,
2013-04-10 19:05:00,57.1,48.5,29.79,NNW,346,3.0,9.0,73,0.00,,,0.00,WeatherCatV1.24B11,2013-04-11 00:05:00,
2013-04-10 19:07:00,57.5,48.5,29.79,NE,34,3.0,9.0,72,0.00,,,0.07,WeatherCatV1.15B25,2013-04-11 00:07:00,
2013-04-10 19:10:00,56.9,48.3,29.80,NNW,346,5.0,6.0,73,0.00,,,0.00,WeatherCatV1.24B11,2013-04-11 00:10:00,
2013-04-10 19:12:00,57.3,48.7,29.79,NNW,327,15.0,15.0,73,0.00,,,0.07,WeatherCatV1.15B25,2013-04-11 00:12:00,
2013-04-10 19:15:00,56.8,48.2,29.80,North,355,4.0,7.0,73,0.00,,,0.00,WeatherCatV1.24B11,2013-04-11 00:15:00,
2013-04-10 19:17:00,57.1,48.5,29.79,NNW,345,5.0,9.0,73,0.00,,,0.07,WeatherCatV1.15B25,2013-04-11 00:17:00,
2013-04-10 19:20:00,56.7,48.2,29.80,NNW,337,4.0,6.0,73,0.00,,,0.00,WeatherCatV1.24B11,2013-04-11 00:20:00,
2013-04-10 19:22:00,56.9,48.3,29.80,NNW,336,0.0,6.0,73,0.00,,,0.07,WeatherCatV1.15B25,2013-04-11 00:22:00,
2013-04-10 19:25:00,56.6,48.0,29.80,NNW,343,4.0,9.0,73,0.00,,,0.00,WeatherCatV1.24B11,2013-04-11 00:25:00,
2013-04-10 19:27:00,56.8,48.2,29.80,NNW,327,5.0,10.0,73,0.00,,,0.07,WeatherCatV1.15B25,2013-04-11 00:27:00,
2013-04-10 19:30:00,56.5,48.0,29.79,NNW,348,4.0,9.0,73,0.00,,,0.00,WeatherCatV1.24B11,2013-04-11 00:30:00,
2013-04-10 19:32:00,56.7,48.1,29.80,North,355,6.0,6.0,73,0.00,,,0.07,WeatherCatV1.15B25,2013-04-11 00:32:00,
2013-04-10 19:35:00,56.4,47.9,29.80,North,351,4.0,7.0,73,0.00,,,0.00,WeatherCatV1.24B11,2013-04-11 00:35:00,
2013-04-10 19:37:00,56.7,48.1,29.80,North,355,2.0,9.0,73,0.00,,,0.07,WeatherCatV1.15B25,2013-04-11 00:37:00,
2013-04-10 19:40:00,56.4,47.9,29.80,North,3,4.0,5.0,73,0.00,,,0.00,WeatherCatV1.24B11,2013-04-11 00:40:00,
2013-04-10 19:42:00,56.5,47.9,29.79,NNE,28,4.0,9.0,73,0.00,,,0.07,WeatherCatV1.15B25,2013-04-11 00:42:00,
2013-04-10 19:45:00,56.2,47.7,29.80,North,349,3.0,8.0,73,0.00,,,0.00,WeatherCatV1.24B11,2013-04-11 00:45:00,
2013-04-10 19:47:00,56.4,47.9,29.80,NNW,342,6.0,7.0,73,0.00,,,0.07,WeatherCatV1.15B25,2013-04-11 00:47:00,
2013-04-10 19:50:00,56.1,47.6,29.80,NNW,348,3.0,3.0,73,0.00,,,0.00,WeatherCatV1.24B11,2013-04-11 00:50:00,
2013-04-10 19:52:00,56.4,47.9,29.80,North,9,3.0,5.0,73,0.00,,,0.07,WeatherCatV1.15B25,2013-04-11 00:52:00,
2013-04-10 19:55:00,55.9,47.7,29.80,NNW,345,3.0,6.0,74,0.00,,,0.00,WeatherCatV1.24B11,2013-04-11 00:55:00,
2013-04-10 19:57:00,56.2,47.7,29.80,NNW,345,1.0,10.0,73,0.00,,,0.07,WeatherCatV1.15B25,2013-04-11 00:57:00,
2013-04-10 20:00:00,55.8,47.6,29.81,NNW,344,3.0,12.0,74,0.00,,,0.00,WeatherCatV1.24B11,2013-04-11 01:00:00,
2013-04-10 20:02:00,56.1,47.6,29.80,NNW,343,0.0,6.0,73,0.00,,,0.07,WeatherCatV1.15B25,2013-04-11 01:02:00,
2013-04-10 20:05:00,55.6,47.4,29.81,NNW,343,4.0,6.0,74,0.00,,,0.00,WeatherCatV1.24B11,2013-04-11 01:05:00,
2013-04-10 20:07:00,55.9,47.7,29.80,NE,42,5.0,7.0,74,0.00,,,0.07,WeatherCatV1.15B25,2013-04-11 01:07:00,
2013-04-10 20:10:00,55.5,47.7,29.81,NNW,347,4.0,5.0,75,0.00,,,0.00,WeatherCatV1.24B11,2013-04-11 01:10:00,
2013-04-10 20:12:00,55.8,47.6,29.81,North,0,0.0,8.0,74,0.00,,,0.07,WeatherCatV1.15B25,2013-04-11 01:12:00,
2013-04-10 20:15:00,55.3,47.5,29.81,NNW,347,3.0,6.0,75,0.00,,,0.00,WeatherCatV1.24B11,2013-04-11 01:15:00,
2013-04-10 20:17:00,55.7,47.5,29.81,NNW,339,6.0,9.0,74,0.00,,,0.07,WeatherCatV1.15B25,2013-04-11 01:17:00,
2013-04-10 20:20:00,55.1,47.0,29.82,NNW,344,4.0,9.0,74,0.00,,,0.00,WeatherCatV1.24B11,2013-04-11 01:20:00,
2013-04-10 20:22:00,55.5,47.7,29.81,North,355,3.0,10.0,75,0.00,,,0.07,WeatherCatV1.15B25,2013-04-11 01:22:00,
2013-04-10 20:25:00,55.0,46.9,29.82,NNW,337,4.0,5.0,74,0.00,,,0.00,WeatherCatV1.24B11,2013-04-11 01:25:00,
2013-04-10 20:27:00,55.4,47.6,29.81,NNW,342,2.0,10.0,75,0.00,,,0.07,WeatherCatV1.15B25,2013-04-11 01:27:00,
2013-04-10 20:30:00,54.9,46.8,29.82,NNW,337,4.0,6.0,74,0.00,,,0.00,WeatherCatV1.24B11,2013-04-11 01:30:00,
2013-04-10 20:32:00,55.2,47.1,29.82,NNW,345,9.0,12.0,74,0.00,,,0.07,WeatherCatV1.15B25,2013-04-11 01:32:00,
2013-04-10 20:35:00,54.7,46.6,29.82,NNW,346,4.0,10.0,74,0.00,,,0.00,WeatherCatV1.24B11,2013-04-11 01:35:00,
2013-04-10 20:37:00,55.1,47.0,29.82,North,350,2.0,7.0,74,0.00,,,0.07,WeatherCatV1.15B25,2013-04-11 01:37:00,
2013-04-10 20:40:00,54.5,46.4,29.82,NNW,345,4.0,4.0,74,0.00,,,0.00,WeatherCatV1.24B11,2013-04-11 01:40:00,
2013-04-10 20:42:00,54.9,46.8,29.82,North,0,1.0,11.0,74,0.00,,,0.07,WeatherCatV1.15B25,2013-04-11 01:42:00,
2013-04-10 20:45:00,54.4,46.3,29.82,NNW,346,4.0,6.0,74,0.00,,,0.00,WeatherCatV1.24B11,2013-04-11 01:45:00,
2013-04-10 20:47:00,54.7,46.6,29.82,North,9,1.0,9.0,74,0.00,,,0.07,WeatherCatV1.15B25,2013-04-11 01:47:00,
2013-04-10 20:50:00,54.3,46.2,29.82,NNW,343,5.0,7.0,74,0.00,,,0.00,WeatherCatV1.24B11,2013-04-11 01:50:00,
2013-04-10 20:52:00,54.6,46.5,29.82,NNW,332,6.0,12.0,74,0.00,,,0.07,WeatherCatV1.15B25,2013-04-11 01:52:00,
2013-04-10 20:55:00,54.1,46.0,29.82,NNW,334,5.0,8.0,74,0.00,,,0.00,WeatherCatV1.24B11,2013-04-11 01:55:00,
2013-04-10 20:57:00,54.4,46.3,29.82,North,0,1.0,8.0,74,0.00,,,0.07,WeatherCatV1.15B25,2013-04-11 01:57:00,
2013-04-10 21:00:00,54.0,45.9,29.83,NNW,337,6.0,12.0,74,0.00,,,0.00,WeatherCatV1.24B11,2013-04-11 02:00:00,
2013-04-10 21:02:00,54.3,46.2,29.82,NNW,338,7.0,10.0,74,0.00,,,0.07,WeatherCatV1.15B25,2013-04-11 02:02:00,
2013-04-10 21:05:00,53.9,45.5,29.83,NNW,342,6.0,11.0,73,0.00,,,0.00,WeatherCatV1.24B11,2013-04-11 02:05:00,
2013-04-10 21:07:00,54.2,46.1,29.82,NNW,340,4.0,10.0,74,0.00,,,0.07,WeatherCatV1.15B25,2013-04-11 02:07:00,
2013-04-10 21:10:00,53.8,45.4,29.84,NNW,343,5.0,10.0,73,0.00,,,0.00,WeatherCatV1.24B11,2013-04-11 02:10:00,
2013-04-10 21:12:00,54.0,45.9,29.83,North,351,4.0,14.0,74,0.00,,,0.07,WeatherCatV1.15B25,2013-04-11 02:12:00,
2013-04-10 21:15:00,53.7,45.2,29.84,NNW,345,5.0,15.0,73,0.00,,,0.00,WeatherCatV1.24B11,2013-04-11 02:15:00,
2013-04-10 21:17:00,54.0,45.5,29.83,NW,317,0.0,12.0,73,0.00,,,0.07,WeatherCatV1.15B25,2013-04-11 02:17:00,
2013-04-10 21:20:00,53.6,45.2,29.84,North,350,6.0,11.0,73,0.00,,,0.00,WeatherCatV1.24B11,2013-04-11 02:20:00,
2013-04-10 21:22:00,53.8,45.3,29.84,North,0,4.0,10.0,73,0.00,,,0.07,WeatherCatV1.15B25,2013-04-11 02:22:00,
2013-04-10 21:25:00,53.4,45.0,29.84,NNW,336,6.0,11.0,73,0.00,,,0.00,WeatherCatV1.24B11,2013-04-11 02:25:00,
2013-04-10 21:27:00,53.7,45.3,29.84,North,350,0.0,8.0,73,0.00,,,0.07,WeatherCatV1.15B25,2013-04-11 02:27:00,
2013-04-10 21:30:00,53.2,44.8,29.85,NNW,335,5.0,13.0,73,0.00,,,0.00,WeatherCatV1.24B11,2013-04-11 02:30:00,
2013-04-10 21:32:00,53.6,45.2,29.84,North,0,11.0,12.0,73,0.00,,,0.07,WeatherCatV1.15B25,2013-04-11 02:32:00,
2013-04-10 21:35:00,53.1,45.0,29.85,NNW,332,6.0,11.0,74,0.00,,,0.00,WeatherCatV1.24B11,2013-04-11 02:35:00,
2013-04-10 21:37:00,53.4,45.0,29.84,NNW,329,1.0,10.0,73,0.00,,,0.07,WeatherCatV1.15B25,2013-04-11 02:37:00,
2013-04-10 21:40:00,53.0,44.9,29.85,NNW,331,6.0,14.0,74,0.00,,,0.00,WeatherCatV1.24B11,2013-04-11 02:40:00,
2013-04-10 21:42:00,53.2,44.8,29.85,West,261,4.0,12.0,73,0.00,,,0.07,WeatherCatV1.15B25,2013-04-11 02:42:00,
2013-04-10 21:45:00,52.9,44.8,29.85,NNW,335,6.0,6.0,74,0.00,,,0.00,WeatherCatV1.24B11,2013-04-11 02:45:00,
2013-04-10 21:47:00,53.1,45.0,29.85,NNW,331,7.0,12.0,74,0.00,,,0.07,WeatherCatV1.15B25,2013-04-11 02:47:00,
2013-04-10 21:50:00,52.8,44.7,29.85,NNW,336,5.0,9.0,74,0.00,,,0.00,WeatherCatV1.24B11,2013-04-11 02:50:00,
2013-04-10 21:52:00,53.0,44.9,29.84,NW,323,7.0,11.0,74,0.00,,,0.07,WeatherCatV1.15B25,2013-04-11 02:52:00,
2013-04-10 21:55:00,52.8,45.1,29.85,NNW,345,5.0,7.0,75,0.00,,,0.00,WeatherCatV1.24B11,2013-04-11 02:55:00,
2013-04-10 21:57:00,52.9,44.8,29.85,NW,322,9.0,15.0,74,0.00,,,0.07,WeatherCatV1.15B25,2013-04-11 02:57:00,
2013-04-10 22:00:00,52.8,45.1,29.86,NNW,343,5.0,11.0,75,0.00,,,0.00,WeatherCatV1.24B11,2013-04-11 03:00:00,
2013-04-10 22:02:00,52.8,44.7,29.85,NW,312,5.0,10.0,74,0.00,,,0.07,WeatherCatV1.15B25,2013-04-11 03:02:00,
2013-04-10 22:05:00,52.8,44.7,29.86,NNW,337,6.0,11.0,74,0.00,,,0.00,WeatherCatV1.24B11,2013-04-11 03:05:00,
2013-04-10 22:07:00,52.8,45.1,29.85,NW,311,10.0,12.0,75,0.00,,,0.07,WeatherCatV1.15B25,2013-04-11 03:07:00,
2013-04-10 22:10:00,52.9,44.8,29.87,NNW,335,6.0,7.0,74,0.00,,,0.00,WeatherCatV1.24B11,2013-04-11 03:10:00,
2013-04-10 22:12:00,52.8,45.1,29.86,NNE,22,4.0,11.0,75,0.00,,,0.07,WeatherCatV1.15B25,2013-04-11 03:12:00,
2013-04-10 22:15:00,52.9,44.8,29.86,NNW,332,6.0,8.0,74,0.00,,,0.00,WeatherCatV1.24B11,2013-04-11 03:15:00,
2013-04-10 22:17:00,52.8,45.1,29.86,North,355,9.0,11.0,75,0.00,,,0.07,WeatherCatV1.15B25,2013-04-11 03:17:00,
2013-04-10 22:20:00,52.8,44.7,29.86,NNW,332,6.0,10.0,74,0.00,,,0.00,WeatherCatV1.24B11,2013-04-11 03:20:00,
2013-04-10 22:22:00,52.8,44.7,29.87,NW,306,5.0,10.0,74,0.00,,,0.07,WeatherCatV1.15B25,2013-04-11 03:22:00,
2013-04-10 22:25:00,52.8,44.7,29.86,NNW,331,6.0,14.0,74,0.00,,,0.00,WeatherCatV1.24B11,2013-04-11 03:25:00,
2013-04-10 22:27:00,52.9,44.8,29.86,NW,318,5.0,14.0,74,0.00,,,0.07,WeatherCatV1.15B25,2013-04-11 03:27:00,
2013-04-10 22:30:00,52.7,44.7,29.86,NNW,331,6.0,10.0,74,0.00,,,0.00,WeatherCatV1.24B11,2013-04-11 03:30:00,
2013-04-10 22:32:00,52.9,44.8,29.86,WNW,292,7.0,11.0,74,0.00,,,0.07,WeatherCatV1.15B25,2013-04-11 03:32:00,
2013-04-10 22:35:00,52.5,44.5,29.87,NNW,340,6.0,16.0,74,0.00,,,0.00,WeatherCatV1.24B11,2013-04-11 03:35:00,
2013-04-10 22:37:00,52.8,44.7,29.86,NNE,18,9.0,14.0,74,0.00,,,0.07,WeatherCatV1.15B25,2013-04-11 03:37:00,
2013-04-10 22:40:00,52.4,44.7,29.87,NNW,334,7.0,11.0,75,0.00,,,0.00,WeatherCatV1.24B11,2013-04-11 03:40:00,
2013-04-10 22:42:00,52.7,44.6,29.86,NW,325,0.0,10.0,74,0.00,,,0.07,WeatherCatV1.15B25,2013-04-11 03:42:00,
2013-04-10 22:45:00,52.3,44.6,29.87,NNW,334,8.0,12.0,75,0.00,,,0.00,WeatherCatV1.24B11,2013-04-11 03:45:00,
2013-04-10 22:47:00,52.5,44.5,29.87,WNW,294,14.0,16.0,74,0.00,,,0.07,WeatherCatV1.15B25,2013-04-11 03:47:00,
2013-04-10 22:50:00,52.1,44.4,29.87,NNW,333,7.0,19.0,75,0.00,,,0.00,WeatherCatV1.24B11,2013-04-11 03:50:00,
2013-04-10 22:52:00,52.4,44.7,29.87,NNW,329,6.0,11.0,75,0.00,,,0.07,WeatherCatV1.15B25,2013-04-11 03:52:00,
2013-04-10 22:55:00,51.9,44.2,29.87,NNW,336,6.0,7.0,75,0.00,,,0.00,WeatherCatV1.24B11,2013-04-11 03:55:00,
2013-04-10 22:57:00,52.3,44.6,29.87,NNW,337,5.0,14.0,75,0.00,,,0.07,WeatherCatV1.15B25,2013-04-11 03:57:00,
2013-04-10 23:00:00,52.2,44.5,29.87,NW,323,8.0,9.0,75,0.00,,,0.07,WeatherCatV1.15B25,2013-04-11 04:00:00,
2013-04-10 23:01:00,52.1,44.4,29.87,NNW,334,9.0,9.0,75,0.00,,,0.07,WeatherCatV1.15B25,2013-04-11 04:01:00,
2013-04-10 23:05:00,51.6,44.3,29.87,NNW,332,6.0,12.0,76,0.00,,,0.00,WeatherCatV1.24B11,2013-04-11 04:05:00,
2013-04-10 23:06:00,51.9,44.2,29.87,NW,323,5.0,11.0,75,0.00,,,0.07,WeatherCatV1.15B25,2013-04-11 04:06:00,
2013-04-10 23:10:00,51.4,44.1,29.88,NNW,329,5.0,14.0,76,0.00,,,0.00,WeatherCatV1.24B11,2013-04-11 04:10:00,
2013-04-10 23:11:00,51.7,44.0,29.87,NE,40,11.0,13.0,75,0.00,,,0.07,WeatherCatV1.15B25,2013-04-11 04:11:00,
2013-04-10 23:15:00,51.3,44.0,29.89,NNW,340,4.0,6.0,76,0.00,,,0.00,WeatherCatV1.24B11,2013-04-11 04:15:00,
2013-04-10 23:16:00,51.6,43.9,29.87,NW,311,5.0,10.0,75,0.00,,,0.07,WeatherCatV1.15B25,2013-04-11 04:16:00,
2013-04-10 23:20:00,51.2,44.2,29.88,NNW,339,4.0,12.0,77,0.00,,,0.00,WeatherCatV1.24B11,2013-04-11 04:20:00,
2013-04-10 23:21:00,51.5,44.2,29.88,NNW,338,8.0,11.0,76,0.00,,,0.07,WeatherCatV1.15B25,2013-04-11 04:21:00,
2013-04-10 23:25:00,51.0,43.7,29.88,NNW,339,6.0,13.0,76,0.00,,,0.00,WeatherCatV1.24B11,2013-04-11 04:25:00,
2013-04-10 23:26:00,51.4,44.1,29.89,North,355,5.0,8.0,76,0.00,,,0.07,WeatherCatV1.15B25,2013-04-11 04:26:00,
2013-04-10 23:30:00,50.9,43.6,29.89,NNW,334,7.0,9.0,76,0.00,,,0.00,WeatherCatV1.24B11,2013-04-11 04:30:00,
2013-04-10 23:31:00,51.3,44.3,29.88,NNW,337,5.0,11.0,77,0.00,,,0.07,WeatherCatV1.15B25,2013-04-11 04:31:00,
2013-04-10 23:35:00,50.8,43.5,29.89,NNW,330,7.0,8.0,76,0.00,,,0.00,WeatherCatV1.24B11,2013-04-11 04:35:00,
2013-04-10 23:36:00,51.1,43.8,29.88,NNE,17,5.0,13.0,76,0.00,,,0.07,WeatherCatV1.15B25,2013-04-11 04:36:00,
2013-04-10 23:40:00,50.8,43.5,29.89,NW,325,6.0,8.0,76,0.00,,,0.00,WeatherCatV1.24B11,2013-04-11 04:40:00,
2013-04-10 23:41:00,51.0,43.7,29.89,NNW,344,5.0,11.0,76,0.00,,,0.07,WeatherCatV1.15B25,2013-04-11 04:41:00,
2013-04-10 23:45:00,50.7,43.4,29.89,NNW,332,7.0,14.0,76,0.00,,,0.00,WeatherCatV1.24B11,2013-04-11 04:45:00,
2013-04-10 23:46:00,50.9,43.6,29.89,NNW,328,15.0,15.0,76,0.00,,,0.07,WeatherCatV1.15B25,2013-04-11 04:46:00,
2013-04-10 23:50:00,50.6,43.3,29.89,NNW,336,7.0,9.0,76,0.00,,,0.00,WeatherCatV1.24B11,2013-04-11 04:50:00,
2013-04-10 23:51:00,50.8,43.5,29.89,North,0,6.0,7.0,76,0.00,,,0.07,WeatherCatV1.15B25,2013-04-11 04:51:00,
2013-04-10 23:55:00,50.6,43.3,29.89,NNW,334,5.0,16.0,76,0.00,,,0.00,WeatherCatV1.24B11,2013-04-11 04:55:00,
2013-04-10 23:56:00,50.8,43.5,29.89,WNW,297,11.0,14.0,76,0.00,,,0.07,WeatherCatV1.15B25,2013-04-11 04:56:00,